CCA984 KLAX-ZBAA

Flight info

Callsign CCA984
Flight time 14h 2m
Altitude 30000
Route SUMMR2 SCTRR DCT PYE J143 ENI DCT MITOH/N0476F320 DCT 44N130W 49N140W 53N150W/N0477F340 55N160W DCT CDB A342 PINSO/N0482F360 A342 NUZAN/N0481F370 R220 NOGAL/N0470F380 R220 NODAN R217 GTC Y142 SAMON Y14 SUGNO Y16 SAPRA Y685 BULGA/N0471F400 Y685 SEL Y697 AGAVO/K0865S1220 A591 IKEKA W4 HCH W200 DOVIV W55 DUMAP DUMAP2G
Aircraft A343/H-SDE2E3FGHIJ4J5M1RWXY/LB1D1

Departure

Time 2026-04-25 05:49
Airport Los Angeles International Airport (KLAX)

Arrival

Time 2026-04-25 19:51
Airport Beijing Capital International Airport (ZBAA)
Time Latitude Longitude Altitude Speed Heading
2026-04-25 04:56 33.94023 -118.40928 98 ft 0 kts 264°
2026-04-25 05:30 33.94024 -118.40919 100 ft 3 kts 264°
2026-04-25 05:30 33.94026 -118.40897 97 ft 3 kts 264°
2026-04-25 05:31 33.94027 -118.40875 99 ft 3 kts 262°
2026-04-25 05:31 33.94034 -118.40852 97 ft 3 kts 216°
2026-04-25 05:31 33.94051 -118.40843 97 ft 2 kts 178°
2026-04-25 05:31 33.94053 -118.40843 97 ft 0 kts 178°
2026-04-25 05:35 33.94050 -118.40843 97 ft 1 kts 178°
2026-04-25 05:35 33.94046 -118.40842 98 ft 0 kts 176°
2026-04-25 05:40 33.94045 -118.40842 98 ft 1 kts 174°
2026-04-25 05:40 33.94023 -118.40840 99 ft 5 kts 174°
2026-04-25 05:40 33.93977 -118.40829 100 ft 8 kts 166°
2026-04-25 05:41 33.93927 -118.40812 101 ft 6 kts 162°
2026-04-25 05:41 33.93892 -118.40793 101 ft 5 kts 149°
2026-04-25 05:41 33.93856 -118.40760 103 ft 9 kts 142°
2026-04-25 05:41 33.93814 -118.40685 105 ft 13 kts 103°
2026-04-25 05:42 33.93823 -118.40542 106 ft 21 kts 83°
2026-04-25 05:42 33.93843 -118.40337 107 ft 28 kts 83°
2026-04-25 05:42 33.93869 -118.40089 108 ft 29 kts 82°
2026-04-25 05:42 33.93893 -118.39855 107 ft 27 kts 82°
2026-04-25 05:43 33.93916 -118.39636 106 ft 25 kts 83°
2026-04-25 05:43 33.93935 -118.39431 105 ft 24 kts 84°
2026-04-25 05:43 33.93957 -118.39222 105 ft 25 kts 82°
2026-04-25 05:43 33.93980 -118.39024 105 ft 23 kts 84°
2026-04-25 05:44 33.93997 -118.38840 105 ft 21 kts 83°
2026-04-25 05:44 33.94014 -118.38672 107 ft 19 kts 83°
2026-04-25 05:44 33.94027 -118.38523 107 ft 17 kts 83°
2026-04-25 05:44 33.94042 -118.38392 106 ft 15 kts 81°
2026-04-25 05:45 33.94057 -118.38272 106 ft 14 kts 81°
2026-04-25 05:45 33.94068 -118.38164 106 ft 11 kts 83°
2026-04-25 05:45 33.94076 -118.38082 106 ft 9 kts 83°
2026-04-25 05:45 33.94077 -118.38060 106 ft 0 kts 90°
2026-04-25 05:46 33.94077 -118.38054 106 ft 3 kts 91°
2026-04-25 05:46 33.94069 -118.38022 107 ft 4 kts 118°
2026-04-25 05:47 33.94052 -118.38006 109 ft 3 kts 150°
2026-04-25 05:47 33.94018 -118.38001 111 ft 7 kts 185°
2026-04-25 05:47 33.93987 -118.38033 110 ft 6 kts 240°
2026-04-25 05:47 33.93978 -118.38101 113 ft 14 kts 263°
2026-04-25 05:48 33.93955 -118.38339 113 ft 51 kts 263°
2026-04-25 05:48 33.93888 -118.38950 110 ft 97 kts 263°
2026-04-25 05:48 33.93789 -118.39929 114 ft 136 kts 263°
2026-04-25 05:48 33.93635 -118.41174 128 ft 158 kts 253°
2026-04-25 05:49 33.93486 -118.42482 457 ft 162 kts 268°
2026-04-25 05:49 33.93442 -118.43889 705 ft 176 kts 269°
2026-04-25 05:49 33.93333 -118.45382 1165 ft 180 kts 263°
2026-04-25 05:49 33.93174 -118.46933 1455 ft 193 kts 263°
2026-04-25 05:50 33.93002 -118.48595 1608 ft 208 kts 263°
2026-04-25 05:50 33.92829 -118.50419 1719 ft 229 kts 264°
2026-04-25 05:50 33.92656 -118.52406 1920 ft 247 kts 264°
2026-04-25 05:50 33.92476 -118.54507 2137 ft 264 kts 264°
2026-04-25 05:51 33.92284 -118.56764 2484 ft 275 kts 264°
2026-04-25 05:51 33.92090 -118.59084 3018 ft 280 kts 264°
2026-04-25 05:51 33.91895 -118.61422 3613 ft 282 kts 264°
2026-04-25 05:51 33.91781 -118.63776 4304 ft 278 kts 269°
2026-04-25 05:52 33.91761 -118.66053 5233 ft 267 kts 270°
2026-04-25 05:52 33.91754 -118.68250 5916 ft 264 kts 271°
2026-04-25 05:52 33.91748 -118.70464 6503 ft 264 kts 270°
2026-04-25 05:52 33.91741 -118.72681 6979 ft 268 kts 270°
2026-04-25 05:53 33.91733 -118.74943 7437 ft 271 kts 270°
2026-04-25 05:53 33.91724 -118.77219 7993 ft 271 kts 269°
2026-04-25 05:53 33.91714 -118.79498 8519 ft 272 kts 269°
2026-04-25 05:53 33.91704 -118.81777 9049 ft 273 kts 269°
2026-04-25 05:54 33.91696 -118.84071 9539 ft 274 kts 270°
2026-04-25 05:54 33.91728 -118.85596 9877 ft 275 kts 271°
2026-04-25 05:54 33.91889 -118.90302 10441 ft 292 kts 271°
2026-04-25 05:55 33.91970 -118.92792 10621 ft 303 kts 271°
2026-04-25 05:55 33.92050 -118.95378 10805 ft 314 kts 271°
2026-04-25 05:55 33.92131 -118.98059 10971 ft 325 kts 271°
2026-04-25 05:55 33.92336 -119.00825 11141 ft 337 kts 281°
2026-04-25 05:56 33.93169 -119.03482 11310 ft 351 kts 296°
2026-04-25 05:56 33.94432 -119.06039 11563 ft 359 kts 300°
2026-04-25 05:56 33.95775 -119.08598 11960 ft 363 kts 300°
2026-04-25 05:56 33.97123 -119.11168 12393 ft 364 kts 299°
2026-04-25 05:57 33.98473 -119.13760 12868 ft 365 kts 299°
2026-04-25 05:57 33.99830 -119.16358 13318 ft 367 kts 300°
2026-04-25 05:57 34.01435 -119.18781 13757 ft 374 kts 312°
2026-04-25 05:57 34.03463 -119.20795 14163 ft 379 kts 320°
2026-04-25 05:58 34.05619 -119.22658 14535 ft 382 kts 321°
2026-04-25 05:58 34.07802 -119.24513 14921 ft 384 kts 321°
2026-04-25 05:58 34.09965 -119.26357 15241 ft 388 kts 320°
2026-04-25 05:58 34.12177 -119.28250 15592 ft 391 kts 320°
2026-04-25 05:59 34.14400 -119.30158 15997 ft 393 kts 320°
2026-04-25 05:59 34.16630 -119.32076 16372 ft 395 kts 320°
2026-04-25 05:59 34.18873 -119.34008 16757 ft 397 kts 320°
2026-04-25 05:59 34.21126 -119.35950 17156 ft 399 kts 320°
2026-04-25 06:00 34.23394 -119.37907 17531 ft 401 kts 320°
2026-04-25 06:00 34.25674 -119.39876 17903 ft 403 kts 320°
2026-04-25 06:00 34.27966 -119.41857 18254 ft 405 kts 320°
2026-04-25 06:00 34.30268 -119.43848 18572 ft 408 kts 320°
2026-04-25 06:01 34.32581 -119.45850 18894 ft 409 kts 320°
2026-04-25 06:01 34.34906 -119.47864 19207 ft 411 kts 320°
2026-04-25 06:01 34.37236 -119.49883 19535 ft 413 kts 320°
2026-04-25 06:01 34.39573 -119.51910 19863 ft 415 kts 319°
2026-04-25 06:02 34.41919 -119.53951 20204 ft 416 kts 319°
2026-04-25 06:02 34.44228 -119.56089 20497 ft 418 kts 317°
2026-04-25 06:02 34.46487 -119.58243 20795 ft 419 kts 317°
2026-04-25 06:02 34.48788 -119.60435 21134 ft 421 kts 317°
2026-04-25 06:03 34.51105 -119.62634 21439 ft 423 kts 317°
2026-04-25 06:03 34.53431 -119.64839 21756 ft 424 kts 317°
2026-04-25 06:03 34.55762 -119.67036 22061 ft 426 kts 317°
2026-04-25 06:03 34.58103 -119.69249 22358 ft 427 kts 317°
2026-04-25 06:04 34.60457 -119.71479 22664 ft 429 kts 317°
2026-04-25 06:04 34.62825 -119.73721 22967 ft 431 kts 317°
2026-04-25 06:04 34.65164 -119.75939 23286 ft 433 kts 316°
2026-04-25 06:04 34.67547 -119.78197 23534 ft 434 kts 316°
2026-04-25 06:05 34.69941 -119.80467 23783 ft 436 kts 316°
2026-04-25 06:05 34.72335 -119.82739 24042 ft 437 kts 316°
2026-04-25 06:05 34.74744 -119.85027 24255 ft 441 kts 316°
2026-04-25 06:05 34.77161 -119.87323 24568 ft 440 kts 316°
2026-04-25 06:06 34.79573 -119.89617 24877 ft 440 kts 316°
2026-04-25 06:06 34.81988 -119.91915 25109 ft 441 kts 316°
2026-04-25 06:06 34.84409 -119.94223 25336 ft 443 kts 316°
2026-04-25 06:06 34.86806 -119.96513 25558 ft 444 kts 316°
2026-04-25 06:07 34.89237 -119.98836 25790 ft 445 kts 316°
2026-04-25 06:07 34.91679 -120.01168 26009 ft 446 kts 316°
2026-04-25 06:07 34.94125 -120.03503 26248 ft 447 kts 316°
2026-04-25 06:07 34.96579 -120.05844 26536 ft 447 kts 316°
2026-04-25 06:08 34.99029 -120.08186 26752 ft 448 kts 316°
2026-04-25 06:08 35.01491 -120.10543 26965 ft 450 kts 316°
2026-04-25 06:08 35.03960 -120.12911 27151 ft 452 kts 316°
2026-04-25 06:08 35.06440 -120.15291 27315 ft 454 kts 316°
2026-04-25 06:09 35.08923 -120.17674 27536 ft 455 kts 316°
2026-04-25 06:09 35.11380 -120.20034 27761 ft 455 kts 316°
2026-04-25 06:09 35.13867 -120.22425 28026 ft 454 kts 316°
2026-04-25 06:09 35.16350 -120.24814 28242 ft 455 kts 316°
2026-04-25 06:10 35.18847 -120.27203 28399 ft 457 kts 317°
2026-04-25 06:10 35.21400 -120.29535 28606 ft 459 kts 318°
2026-04-25 06:10 35.23969 -120.31859 28837 ft 459 kts 318°
2026-04-25 06:10 35.26527 -120.34180 29109 ft 457 kts 317°
2026-04-25 06:11 35.29082 -120.36507 29398 ft 456 kts 317°
2026-04-25 06:11 35.31611 -120.38816 29836 ft 451 kts 317°
2026-04-25 06:11 35.34118 -120.41113 30005 ft 451 kts 317°
2026-04-25 06:11 35.36642 -120.43432 30014 ft 455 kts 317°
2026-04-25 06:12 35.41744 -120.48121 30014 ft 458 kts 317°
2026-04-25 06:12 35.46809 -120.52779 30020 ft 457 kts 316°
2026-04-25 06:13 35.51885 -120.57457 30017 ft 454 kts 316°
2026-04-25 06:14 35.59606 -120.64271 30018 ft 456 kts 319°
2026-04-25 06:14 35.64801 -120.68667 30022 ft 456 kts 319°
2026-04-25 06:15 35.69996 -120.73107 30016 ft 453 kts 318°
2026-04-25 06:15 35.75155 -120.77558 30015 ft 453 kts 318°
2026-04-25 06:16 35.80315 -120.82030 30014 ft 453 kts 318°
2026-04-25 06:16 35.85477 -120.86511 30008 ft 455 kts 319°
2026-04-25 06:17 35.90661 -120.91015 30001 ft 456 kts 319°
2026-04-25 06:17 35.95845 -120.95524 29999 ft 455 kts 319°
2026-04-25 06:18 36.00997 -121.00011 30004 ft 456 kts 318°
2026-04-25 06:18 36.06174 -121.04561 30001 ft 455 kts 317°
2026-04-25 06:19 36.11270 -121.09210 30008 ft 455 kts 317°
2026-04-25 06:19 36.16358 -121.13893 30017 ft 455 kts 317°
2026-04-25 06:20 36.21427 -121.18546 30009 ft 453 kts 317°
2026-04-25 06:20 36.26462 -121.23166 30017 ft 454 kts 317°
2026-04-25 06:21 36.31546 -121.27831 30013 ft 454 kts 317°
2026-04-25 06:21 36.33850 -121.29948 30015 ft 455 kts 317°
2026-04-25 06:22 36.38938 -121.34627 30022 ft 455 kts 317°
2026-04-25 06:22 36.44027 -121.39314 30025 ft 455 kts 317°
2026-04-25 06:23 36.49085 -121.43983 30043 ft 455 kts 316°
2026-04-25 06:23 36.54163 -121.48677 30031 ft 454 kts 316°
2026-04-25 06:24 36.59237 -121.53376 29996 ft 454 kts 316°
2026-04-25 06:24 36.64328 -121.58102 29998 ft 457 kts 316°
2026-04-25 06:25 36.69399 -121.62815 29995 ft 456 kts 316°
2026-04-25 06:25 36.74490 -121.67553 30006 ft 456 kts 316°
2026-04-25 06:26 36.79565 -121.72284 30013 ft 456 kts 316°
2026-04-25 06:26 36.84650 -121.77033 29999 ft 456 kts 316°
2026-04-25 06:27 36.89725 -121.81781 29995 ft 456 kts 316°
2026-04-25 06:27 36.94787 -121.86529 30001 ft 459 kts 316°
2026-04-25 06:28 36.99892 -121.91321 29995 ft 459 kts 316°
2026-04-25 06:28 37.04989 -121.96111 29989 ft 457 kts 316°
2026-04-25 06:29 37.10080 -122.00907 29986 ft 457 kts 316°
2026-04-25 06:29 37.15173 -122.05715 29992 ft 458 kts 316°
2026-04-25 06:30 37.20248 -122.10515 30005 ft 456 kts 316°
2026-04-25 06:30 37.25305 -122.15308 29988 ft 459 kts 316°
2026-04-25 06:31 37.30404 -122.20140 30010 ft 459 kts 316°
2026-04-25 06:31 37.35479 -122.24957 29994 ft 455 kts 316°
2026-04-25 06:32 37.40522 -122.29758 29990 ft 455 kts 316°
2026-04-25 06:32 37.45568 -122.34563 30005 ft 455 kts 316°
2026-04-25 06:33 37.50603 -122.39375 29981 ft 454 kts 316°
2026-04-25 06:33 37.55642 -122.44201 30000 ft 456 kts 316°
2026-04-25 06:34 37.60694 -122.49044 29980 ft 455 kts 316°
2026-04-25 06:34 37.65712 -122.53857 29982 ft 448 kts 316°
2026-04-25 06:35 37.70622 -122.58577 29984 ft 446 kts 315°
2026-04-25 06:35 37.75551 -122.63332 29976 ft 447 kts 315°
2026-04-25 06:36 37.80515 -122.68130 29977 ft 449 kts 315°
2026-04-25 06:36 37.85475 -122.72922 29983 ft 448 kts 315°
2026-04-25 06:37 37.90428 -122.77718 29973 ft 448 kts 315°
2026-04-25 06:37 37.95376 -122.82518 29965 ft 448 kts 315°
2026-04-25 06:38 38.00324 -122.87328 29970 ft 448 kts 315°
2026-04-25 06:38 38.05245 -122.92120 29973 ft 451 kts 315°
2026-04-25 06:39 38.10229 -122.96982 29971 ft 449 kts 315°
2026-04-25 06:39 38.15166 -123.01798 29970 ft 446 kts 315°
2026-04-25 06:40 38.19263 -123.05809 29964 ft 446 kts 315°
2026-04-25 06:40 38.24186 -123.10638 29969 ft 447 kts 316°
2026-04-25 06:41 38.29109 -123.15472 29958 ft 447 kts 315°
2026-04-25 06:41 38.34038 -123.20318 29959 ft 448 kts 315°
2026-04-25 06:42 38.38979 -123.25188 29962 ft 449 kts 316°
2026-04-25 06:42 38.43920 -123.30072 29956 ft 455 kts 316°
2026-04-25 06:43 38.48923 -123.35017 29958 ft 455 kts 316°
2026-04-25 06:43 38.53927 -123.39971 29965 ft 456 kts 317°
2026-04-25 06:44 38.58968 -123.44975 29957 ft 460 kts 317°
2026-04-25 06:44 38.64032 -123.50010 29963 ft 461 kts 317°
2026-04-25 06:45 38.69093 -123.55050 29978 ft 461 kts 318°
2026-04-25 06:45 38.74153 -123.60100 29963 ft 464 kts 318°
2026-04-25 06:46 38.79254 -123.65198 29966 ft 464 kts 318°
2026-04-25 06:46 38.84352 -123.70304 29965 ft 465 kts 318°
2026-04-25 06:47 38.89438 -123.75408 29968 ft 467 kts 318°
2026-04-25 06:47 38.94556 -123.80553 29970 ft 467 kts 318°
2026-04-25 06:48 38.99671 -123.85706 29971 ft 468 kts 319°
2026-04-25 06:48 39.04804 -123.90886 29975 ft 469 kts 319°
2026-04-25 06:49 39.09929 -123.96066 29974 ft 468 kts 318°
2026-04-25 06:49 39.15066 -124.01271 29977 ft 470 kts 319°
2026-04-25 06:50 39.20172 -124.06454 29974 ft 470 kts 319°
2026-04-25 06:50 39.25310 -124.11678 29987 ft 470 kts 319°
2026-04-25 06:51 39.30451 -124.16917 29975 ft 471 kts 319°
2026-04-25 06:51 39.35602 -124.22175 29971 ft 472 kts 319°
2026-04-25 06:52 39.40759 -124.27448 29982 ft 472 kts 319°
2026-04-25 06:52 39.45911 -124.32727 29979 ft 472 kts 319°
2026-04-25 06:53 39.51027 -124.37979 29977 ft 472 kts 319°
2026-04-25 06:53 39.56175 -124.43276 29977 ft 472 kts 319°
2026-04-25 06:54 39.61321 -124.48579 29977 ft 472 kts 319°
2026-04-25 06:54 39.66475 -124.53902 29977 ft 473 kts 319°
2026-04-25 06:55 39.71581 -124.59187 29977 ft 472 kts 319°
2026-04-25 06:55 39.76725 -124.64520 29979 ft 472 kts 319°
2026-04-25 06:56 39.81863 -124.69858 29986 ft 472 kts 319°
2026-04-25 06:56 39.87006 -124.75211 29982 ft 473 kts 319°
2026-04-25 06:57 39.92146 -124.80575 29982 ft 473 kts 319°
2026-04-25 06:57 39.97276 -124.85938 29983 ft 473 kts 319°
2026-04-25 06:58 40.02382 -124.91285 29986 ft 473 kts 320°
2026-04-25 06:58 40.07525 -124.96678 29984 ft 473 kts 319°
2026-04-25 06:59 40.12658 -125.02068 29989 ft 474 kts 319°
2026-04-25 06:59 40.17800 -125.07485 29985 ft 474 kts 320°
2026-04-25 07:00 40.22931 -125.12909 29990 ft 474 kts 319°
2026-04-25 07:00 40.28024 -125.18296 29989 ft 474 kts 319°
2026-04-25 07:01 40.33145 -125.23720 29994 ft 471 kts 320°
2026-04-25 07:01 40.38245 -125.29136 29989 ft 471 kts 321°
2026-04-25 07:02 40.43341 -125.34560 29991 ft 472 kts 321°
2026-04-25 07:02 40.48440 -125.39992 29991 ft 472 kts 321°
2026-04-25 07:03 40.53536 -125.45439 29991 ft 472 kts 322°
2026-04-25 07:03 40.58602 -125.50865 29993 ft 473 kts 322°
2026-04-25 07:04 40.63724 -125.56358 29995 ft 473 kts 322°
2026-04-25 07:04 40.68827 -125.61841 29997 ft 473 kts 322°
2026-04-25 07:05 40.73931 -125.67340 29993 ft 473 kts 323°
2026-04-25 07:05 40.78996 -125.72812 29995 ft 474 kts 322°
2026-04-25 07:06 40.84099 -125.78329 29995 ft 473 kts 322°
2026-04-25 07:06 40.89197 -125.83850 29996 ft 473 kts 323°
2026-04-25 07:07 40.94290 -125.89379 29994 ft 473 kts 322°
2026-04-25 07:07 40.99373 -125.94910 29995 ft 473 kts 322°
2026-04-25 07:08 41.04425 -126.00426 29998 ft 472 kts 322°
2026-04-25 07:08 41.09497 -126.05978 30001 ft 472 kts 322°
2026-04-25 07:09 41.14562 -126.11527 29997 ft 472 kts 322°
2026-04-25 07:09 41.19624 -126.17079 30001 ft 472 kts 322°
2026-04-25 07:10 41.24655 -126.22605 30000 ft 472 kts 322°
2026-04-25 07:10 41.29722 -126.28182 30004 ft 471 kts 322°
2026-04-25 07:11 41.34767 -126.33746 30008 ft 471 kts 323°
2026-04-25 07:11 41.39813 -126.39318 30012 ft 470 kts 322°
2026-04-25 07:12 41.44826 -126.44887 30014 ft 469 kts 322°
2026-04-25 07:12 41.52308 -126.53213 30020 ft 469 kts 322°
2026-04-25 07:13 41.57316 -126.58792 30015 ft 468 kts 322°
2026-04-25 07:13 41.62310 -126.64372 30023 ft 468 kts 322°
2026-04-25 07:14 41.67313 -126.69962 30029 ft 468 kts 322°
2026-04-25 07:14 41.72277 -126.75527 30028 ft 467 kts 322°
2026-04-25 07:15 41.77257 -126.81124 30100 ft 466 kts 322°
2026-04-25 07:15 41.79652 -126.84069 30316 ft 466 kts 318°
2026-04-25 07:15 41.81958 -126.87115 30582 ft 464 kts 317°
2026-04-25 07:16 41.84241 -126.90183 30752 ft 464 kts 317°
2026-04-25 07:16 41.86505 -126.93257 30981 ft 463 kts 317°
2026-04-25 07:16 41.88763 -126.96341 31143 ft 463 kts 317°
2026-04-25 07:16 41.91023 -126.99436 31347 ft 462 kts 316°
2026-04-25 07:17 41.93272 -127.02515 31525 ft 461 kts 316°
2026-04-25 07:17 41.95515 -127.05587 31685 ft 461 kts 317°
2026-04-25 07:17 41.97757 -127.08660 31877 ft 460 kts 317°
2026-04-25 07:17 42.00001 -127.11734 32010 ft 460 kts 316°
2026-04-25 07:18 42.04433 -127.17817 32052 ft 454 kts 316°
2026-04-25 07:18 42.08844 -127.23881 32055 ft 453 kts 316°
2026-04-25 07:19 42.13250 -127.29951 32056 ft 453 kts 317°
2026-04-25 07:19 42.17665 -127.36047 32058 ft 453 kts 316°
2026-04-25 07:20 42.22034 -127.42095 32061 ft 453 kts 316°
2026-04-25 07:20 42.26442 -127.48208 32067 ft 453 kts 316°
2026-04-25 07:21 42.30835 -127.54314 32072 ft 453 kts 316°
2026-04-25 07:21 42.35223 -127.60426 32072 ft 453 kts 316°
2026-04-25 07:22 42.39582 -127.66511 32067 ft 453 kts 316°
2026-04-25 07:22 42.43969 -127.72646 32070 ft 453 kts 316°
2026-04-25 07:23 42.48350 -127.78788 32072 ft 453 kts 316°
2026-04-25 07:23 42.52723 -127.84932 32078 ft 453 kts 316°
2026-04-25 07:24 42.57097 -127.91089 32078 ft 453 kts 316°
2026-04-25 07:24 42.61466 -127.97254 32083 ft 452 kts 316°
2026-04-25 07:25 42.65803 -128.03386 32086 ft 452 kts 316°
2026-04-25 07:25 42.70158 -128.09557 32087 ft 452 kts 316°
2026-04-25 07:26 42.74516 -128.15745 32086 ft 452 kts 316°
2026-04-25 07:26 42.78866 -128.21936 32089 ft 452 kts 316°
2026-04-25 07:27 42.83221 -128.28147 32097 ft 453 kts 316°
2026-04-25 07:27 42.86830 -128.33304 32102 ft 452 kts 316°
2026-04-25 07:28 42.91174 -128.39526 32100 ft 452 kts 316°
2026-04-25 07:28 42.95512 -128.45751 32105 ft 452 kts 316°
2026-04-25 07:29 42.99824 -128.51952 32100 ft 452 kts 316°
2026-04-25 07:29 43.04158 -128.58199 32112 ft 453 kts 316°
2026-04-25 07:30 43.08493 -128.64462 32110 ft 453 kts 316°
2026-04-25 07:30 43.12816 -128.70720 32111 ft 452 kts 315°
2026-04-25 07:31 43.17130 -128.76980 32112 ft 452 kts 315°
2026-04-25 07:31 43.21445 -128.83254 32117 ft 452 kts 315°
2026-04-25 07:32 43.25754 -128.89533 32116 ft 452 kts 315°
2026-04-25 07:32 43.30036 -128.95788 32121 ft 452 kts 315°
2026-04-25 07:33 43.34342 -129.02091 32126 ft 452 kts 315°
2026-04-25 07:33 43.38652 -129.08414 32125 ft 452 kts 315°
2026-04-25 07:34 43.42927 -129.14699 32124 ft 452 kts 315°
2026-04-25 07:34 43.47226 -129.21034 32132 ft 452 kts 315°
2026-04-25 07:35 43.51521 -129.27378 32128 ft 452 kts 315°
2026-04-25 07:35 43.55812 -129.33729 32136 ft 452 kts 315°
2026-04-25 07:36 43.60099 -129.40089 32129 ft 453 kts 315°
2026-04-25 07:36 43.64386 -129.46464 32143 ft 452 kts 315°
2026-04-25 07:37 43.68644 -129.52808 32136 ft 452 kts 315°
2026-04-25 07:37 43.72917 -129.59190 32141 ft 452 kts 315°
2026-04-25 07:38 43.77170 -129.65557 32143 ft 452 kts 315°
2026-04-25 07:38 43.81432 -129.71952 32143 ft 452 kts 315°
2026-04-25 07:39 43.85692 -129.78358 32144 ft 452 kts 315°
2026-04-25 07:39 43.89947 -129.84770 32141 ft 451 kts 315°
2026-04-25 07:40 43.94199 -129.91195 32150 ft 451 kts 314°
2026-04-25 07:40 43.98414 -129.97577 32151 ft 451 kts 314°
2026-04-25 07:41 44.02606 -130.04088 32157 ft 452 kts 312°
2026-04-25 07:41 44.06585 -130.10874 32156 ft 453 kts 310°
2026-04-25 07:42 44.10532 -130.17704 32157 ft 452 kts 311°
2026-04-25 07:42 44.14513 -130.24515 32159 ft 453 kts 311°
2026-04-25 07:43 44.18507 -130.31308 32160 ft 453 kts 311°
2026-04-25 07:43 44.22470 -130.38057 32155 ft 453 kts 311°
2026-04-25 07:44 44.26466 -130.44881 32169 ft 453 kts 311°
2026-04-25 07:44 44.30451 -130.51696 32160 ft 453 kts 311°
2026-04-25 07:45 44.34429 -130.58515 32183 ft 453 kts 311°
2026-04-25 07:45 44.38409 -130.65354 32189 ft 453 kts 311°
2026-04-25 07:46 44.42385 -130.72209 32166 ft 453 kts 311°
2026-04-25 07:46 44.46337 -130.79041 32186 ft 455 kts 311°
2026-04-25 07:47 44.50322 -130.85940 32188 ft 454 kts 310°
2026-04-25 07:47 44.54293 -130.92835 32192 ft 454 kts 311°
2026-04-25 07:48 44.58262 -130.99747 32190 ft 455 kts 311°
2026-04-25 07:48 44.62206 -131.06626 32199 ft 456 kts 310°
2026-04-25 07:49 44.66176 -131.13577 32198 ft 456 kts 310°
2026-04-25 07:49 44.70151 -131.20546 32196 ft 456 kts 310°
2026-04-25 07:50 44.74120 -131.27520 32201 ft 458 kts 310°
2026-04-25 07:50 44.78089 -131.34535 32205 ft 457 kts 310°
2026-04-25 07:51 44.82039 -131.41495 32210 ft 457 kts 310°
2026-04-25 07:51 44.86008 -131.48520 32209 ft 458 kts 310°
2026-04-25 07:52 44.89978 -131.55566 32214 ft 459 kts 310°
2026-04-25 07:52 44.93946 -131.62631 32222 ft 459 kts 310°
2026-04-25 07:53 44.97920 -131.69707 32219 ft 459 kts 310°
2026-04-25 07:53 45.01866 -131.76746 32226 ft 461 kts 309°
2026-04-25 07:54 45.05833 -131.83862 32227 ft 461 kts 309°
2026-04-25 07:54 45.09799 -131.90999 32226 ft 461 kts 309°
2026-04-25 07:55 45.13766 -131.98158 32230 ft 461 kts 309°
2026-04-25 07:55 45.17727 -132.05316 32236 ft 461 kts 309°
2026-04-25 07:56 45.21685 -132.12479 32236 ft 461 kts 309°
2026-04-25 07:56 45.25644 -132.19668 32235 ft 462 kts 309°
2026-04-25 07:57 45.29568 -132.26809 32238 ft 462 kts 309°
2026-04-25 07:57 45.33524 -132.34017 32243 ft 462 kts 309°
2026-04-25 07:58 45.37477 -132.41239 32243 ft 462 kts 309°
2026-04-25 07:58 45.41420 -132.48468 32249 ft 462 kts 309°
2026-04-25 07:59 45.45326 -132.55661 32249 ft 462 kts 308°
2026-04-25 07:59 45.49261 -132.62918 32249 ft 462 kts 309°
2026-04-25 08:00 45.53196 -132.70189 32257 ft 463 kts 308°
2026-04-25 08:00 45.57126 -132.77474 32261 ft 463 kts 308°
2026-04-25 08:01 45.61055 -132.84773 32260 ft 464 kts 308°
2026-04-25 08:01 45.64957 -132.92046 32262 ft 464 kts 308°
2026-04-25 08:02 45.68878 -132.99368 32265 ft 464 kts 308°
2026-04-25 08:02 45.72796 -133.06701 32265 ft 464 kts 308°
2026-04-25 08:03 45.76718 -133.14059 32273 ft 464 kts 308°
2026-04-25 08:03 45.80630 -133.21414 32276 ft 464 kts 308°
2026-04-25 08:04 45.84542 -133.28790 32276 ft 464 kts 308°
2026-04-25 08:04 45.88449 -133.36175 32279 ft 465 kts 308°
2026-04-25 08:05 45.92357 -133.43586 32284 ft 465 kts 308°
2026-04-25 08:05 45.96231 -133.50956 32287 ft 465 kts 308°
2026-04-25 08:06 46.00129 -133.58393 32290 ft 465 kts 307°
2026-04-25 08:06 46.04029 -133.65853 32289 ft 466 kts 307°
2026-04-25 08:07 46.07921 -133.73315 32298 ft 466 kts 307°
2026-04-25 08:07 46.11780 -133.80734 32298 ft 466 kts 307°
2026-04-25 08:08 46.15666 -133.88222 32304 ft 466 kts 307°
2026-04-25 08:08 46.19548 -133.95719 32306 ft 466 kts 307°
2026-04-25 08:09 46.23433 -134.03242 32306 ft 466 kts 307°
2026-04-25 08:09 46.27280 -134.10712 32314 ft 466 kts 307°
2026-04-25 08:10 46.31152 -134.18250 32317 ft 467 kts 307°
2026-04-25 08:10 46.35018 -134.25803 32316 ft 467 kts 307°
2026-04-25 08:11 46.38879 -134.33363 32322 ft 467 kts 306°
2026-04-25 08:11 46.42713 -134.40892 32328 ft 467 kts 306°
2026-04-25 08:12 46.46569 -134.48486 32327 ft 467 kts 306°
2026-04-25 08:12 46.50422 -134.56092 32330 ft 467 kts 306°
2026-04-25 08:13 46.54272 -134.63713 32339 ft 467 kts 306°
2026-04-25 08:14 46.60003 -134.75099 32340 ft 467 kts 306°
2026-04-25 08:14 46.63841 -134.82750 32341 ft 467 kts 306°
2026-04-25 08:15 46.67669 -134.90401 32341 ft 467 kts 306°
2026-04-25 08:15 46.70846 -134.96769 32343 ft 467 kts 306°
2026-04-25 08:16 46.75290 -135.05700 32342 ft 469 kts 306°
2026-04-25 08:16 46.79119 -135.13419 32349 ft 469 kts 305°
2026-04-25 08:17 46.82294 -135.19835 32352 ft 469 kts 306°
2026-04-25 08:17 46.86108 -135.27562 32353 ft 469 kts 305°
2026-04-25 08:18 46.89926 -135.35324 32356 ft 471 kts 305°
2026-04-25 08:18 46.93749 -135.43113 32361 ft 470 kts 305°
2026-04-25 08:19 46.97556 -135.50888 32360 ft 470 kts 305°
2026-04-25 08:19 47.01341 -135.58638 32366 ft 470 kts 305°
2026-04-25 08:20 47.05151 -135.66460 32372 ft 471 kts 304°
2026-04-25 08:20 47.08946 -135.74283 32371 ft 470 kts 304°
2026-04-25 08:21 47.12735 -135.82110 32380 ft 470 kts 304°
2026-04-25 08:21 47.16526 -135.89964 32379 ft 472 kts 304°
2026-04-25 08:22 47.20293 -135.97800 32378 ft 472 kts 303°
2026-04-25 08:22 47.24082 -136.05697 32382 ft 472 kts 303°
2026-04-25 08:23 47.27861 -136.13602 32394 ft 472 kts 303°
2026-04-25 08:23 47.31638 -136.21522 32389 ft 473 kts 303°
2026-04-25 08:24 47.35432 -136.29486 32394 ft 473 kts 303°
2026-04-25 08:24 47.39188 -136.37404 32397 ft 474 kts 303°
2026-04-25 08:25 47.42960 -136.45375 32391 ft 473 kts 303°
2026-04-25 08:25 47.46735 -136.53372 32385 ft 473 kts 303°
2026-04-25 08:26 47.50498 -136.61369 32408 ft 474 kts 303°
2026-04-25 08:26 47.54254 -136.69368 32411 ft 473 kts 303°
2026-04-25 08:27 47.57981 -136.77354 32409 ft 474 kts 303°
2026-04-25 08:27 47.61731 -136.85405 32407 ft 474 kts 303°
2026-04-25 08:28 47.65470 -136.93451 32417 ft 474 kts 303°
2026-04-25 08:28 47.69210 -137.01521 32415 ft 474 kts 303°
2026-04-25 08:29 47.72942 -137.09599 32421 ft 475 kts 302°
2026-04-25 08:29 47.76679 -137.17710 32415 ft 475 kts 302°
2026-04-25 08:30 47.80413 -137.25838 32420 ft 475 kts 302°
2026-04-25 08:30 47.84117 -137.33925 32420 ft 475 kts 302°
2026-04-25 08:31 47.87846 -137.42092 32426 ft 477 kts 302°
2026-04-25 08:31 47.91570 -137.50271 32434 ft 477 kts 302°
2026-04-25 08:32 47.95287 -137.58459 32431 ft 477 kts 302°
2026-04-25 08:32 47.98972 -137.66603 32430 ft 477 kts 302°
2026-04-25 08:33 48.02684 -137.74831 32435 ft 477 kts 302°
2026-04-25 08:33 48.06383 -137.83054 32432 ft 477 kts 302°
2026-04-25 08:34 48.10066 -137.91265 32430 ft 477 kts 302°
2026-04-25 08:34 48.13759 -137.99526 32444 ft 477 kts 302°
2026-04-25 08:35 48.17450 -138.07807 32439 ft 478 kts 301°
2026-04-25 08:35 48.21116 -138.16057 32438 ft 478 kts 301°
2026-04-25 08:36 48.24798 -138.24367 32444 ft 478 kts 301°
2026-04-25 08:36 48.28471 -138.32682 32447 ft 478 kts 301°
2026-04-25 08:37 48.32135 -138.41002 32442 ft 477 kts 301°
2026-04-25 08:37 48.35790 -138.49330 32446 ft 477 kts 301°
2026-04-25 08:38 48.39439 -138.57667 32444 ft 477 kts 301°
2026-04-25 08:38 48.43085 -138.66024 32445 ft 477 kts 301°
2026-04-25 08:39 48.46713 -138.74366 32445 ft 475 kts 301°
2026-04-25 08:39 48.50336 -138.82723 32449 ft 475 kts 301°
2026-04-25 08:40 48.53923 -138.91022 32448 ft 475 kts 301°
2026-04-25 08:40 48.57528 -138.99389 32446 ft 474 kts 301°
2026-04-25 08:41 48.61121 -139.07753 32448 ft 473 kts 301°
2026-04-25 08:41 48.64701 -139.16112 32450 ft 473 kts 301°
2026-04-25 08:42 48.68277 -139.24488 32451 ft 473 kts 301°
2026-04-25 08:42 48.71817 -139.32810 32449 ft 472 kts 301°
2026-04-25 08:43 48.75373 -139.41190 32457 ft 471 kts 301°
2026-04-25 08:43 48.78894 -139.49513 32442 ft 471 kts 301°
2026-04-25 08:44 48.82427 -139.57894 32458 ft 471 kts 301°
2026-04-25 08:44 48.85950 -139.66276 32450 ft 470 kts 301°
2026-04-25 08:45 48.89456 -139.74642 32456 ft 469 kts 301°
2026-04-25 08:45 48.92960 -139.83032 32447 ft 469 kts 301°
2026-04-25 08:46 48.96439 -139.91389 32447 ft 469 kts 301°
2026-04-25 08:46 48.99931 -139.99802 32444 ft 468 kts 301°
2026-04-25 08:47 49.03615 -140.07977 32441 ft 467 kts 306°
2026-04-25 08:47 49.07530 -140.15904 32445 ft 468 kts 306°
2026-04-25 08:48 49.11427 -140.23861 32442 ft 468 kts 306°
2026-04-25 08:48 49.15272 -140.31876 32440 ft 467 kts 305°
2026-04-25 08:49 49.19054 -140.39844 32444 ft 466 kts 305°
2026-04-25 08:49 49.22856 -140.47886 32438 ft 466 kts 305°
2026-04-25 08:50 49.26654 -140.55937 32439 ft 466 kts 305°
2026-04-25 08:50 49.30449 -140.64001 32439 ft 467 kts 304°
2026-04-25 08:51 49.34230 -140.72062 32437 ft 467 kts 304°
2026-04-25 08:51 49.38025 -140.80175 32435 ft 467 kts 304°
2026-04-25 08:52 49.41813 -140.88297 32432 ft 467 kts 304°
2026-04-25 08:52 49.45596 -140.96436 32433 ft 467 kts 304°
2026-04-25 08:53 49.49371 -141.04581 32429 ft 467 kts 304°
2026-04-25 08:53 49.53126 -141.12706 32428 ft 467 kts 304°
2026-04-25 08:54 49.56892 -141.20881 32428 ft 467 kts 304°
2026-04-25 08:54 49.60655 -141.29076 32427 ft 469 kts 303°
2026-04-25 08:55 49.64402 -141.37261 32426 ft 470 kts 303°
2026-04-25 08:55 49.68165 -141.45506 32427 ft 470 kts 303°
2026-04-25 08:56 49.71922 -141.53760 32426 ft 470 kts 303°
2026-04-25 08:56 49.75677 -141.62036 32425 ft 471 kts 303°
2026-04-25 08:57 49.79439 -141.70356 32418 ft 471 kts 303°
2026-04-25 08:57 49.83198 -141.78697 32414 ft 471 kts 303°
2026-04-25 08:58 49.86920 -141.86982 32413 ft 471 kts 303°
2026-04-25 08:58 49.90676 -141.95367 32416 ft 473 kts 302°
2026-04-25 08:59 49.94428 -142.03770 32410 ft 474 kts 302°
2026-04-25 08:59 49.98181 -142.12201 32409 ft 474 kts 302°
2026-04-25 09:00 50.01903 -142.20588 32406 ft 474 kts 302°
2026-04-25 09:00 50.05647 -142.29052 32410 ft 475 kts 301°
2026-04-25 09:01 50.09399 -142.37565 32401 ft 477 kts 301°
2026-04-25 09:01 50.13145 -142.46091 32398 ft 477 kts 301°
2026-04-25 09:02 50.16870 -142.54595 32398 ft 477 kts 301°
2026-04-25 09:02 50.20614 -142.63169 32395 ft 478 kts 301°
2026-04-25 09:03 50.24355 -142.71766 32390 ft 479 kts 301°
2026-04-25 09:03 50.28091 -142.80381 32390 ft 479 kts 301°
2026-04-25 09:04 50.31824 -142.89015 32387 ft 479 kts 301°
2026-04-25 09:04 50.35529 -142.97610 32389 ft 480 kts 300°
2026-04-25 09:05 50.38645 -143.04864 32382 ft 481 kts 300°
2026-04-25 09:05 50.42383 -143.13594 32378 ft 481 kts 300°
2026-04-25 09:06 50.46120 -143.22346 32380 ft 481 kts 300°
2026-04-25 09:06 50.49815 -143.31028 32385 ft 482 kts 300°
2026-04-25 09:07 50.53546 -143.39829 32378 ft 484 kts 300°
2026-04-25 09:07 50.57280 -143.48665 32369 ft 484 kts 300°
2026-04-25 09:08 50.60976 -143.57439 32363 ft 484 kts 299°
2026-04-25 09:08 50.64693 -143.66290 32366 ft 484 kts 299°
2026-04-25 09:09 50.68409 -143.75175 32362 ft 485 kts 299°
2026-04-25 09:09 50.72123 -143.84082 32358 ft 485 kts 299°
2026-04-25 09:10 50.75829 -143.93001 32360 ft 485 kts 299°
2026-04-25 09:10 50.79513 -144.01896 32355 ft 486 kts 298°
2026-04-25 09:11 50.85070 -144.15372 32346 ft 487 kts 298°
2026-04-25 09:11 50.88765 -144.24371 32346 ft 487 kts 298°
2026-04-25 09:12 50.92432 -144.33335 32341 ft 487 kts 298°
2026-04-25 09:12 50.96113 -144.42363 32333 ft 487 kts 298°
2026-04-25 09:13 50.99765 -144.51349 32333 ft 487 kts 298°
2026-04-25 09:13 51.03425 -144.60388 32333 ft 487 kts 298°
2026-04-25 09:14 51.07082 -144.69453 32349 ft 487 kts 298°
2026-04-25 09:14 51.10731 -144.78526 32333 ft 487 kts 297°
2026-04-25 09:15 51.14382 -144.87640 32325 ft 487 kts 297°
2026-04-25 09:15 51.18027 -144.96767 32325 ft 487 kts 297°
2026-04-25 09:16 51.21659 -145.05895 32319 ft 487 kts 297°
2026-04-25 09:16 51.25265 -145.14990 32319 ft 488 kts 297°
2026-04-25 09:17 51.30712 -145.28791 32321 ft 488 kts 297°
2026-04-25 09:18 51.34305 -145.37933 32321 ft 488 kts 297°
2026-04-25 09:18 51.37916 -145.47154 32314 ft 488 kts 296°
2026-04-25 09:19 51.41497 -145.56333 32310 ft 488 kts 296°
2026-04-25 09:19 51.45091 -145.65577 32304 ft 488 kts 296°
2026-04-25 09:20 51.48681 -145.74845 32303 ft 488 kts 296°
2026-04-25 09:20 51.52264 -145.84128 32325 ft 489 kts 296°
2026-04-25 09:21 51.55836 -145.93417 32303 ft 488 kts 296°
2026-04-25 09:21 51.59375 -146.02652 32304 ft 488 kts 296°
2026-04-25 09:22 51.62928 -146.11958 32300 ft 488 kts 296°
2026-04-25 09:22 51.66472 -146.21276 32327 ft 488 kts 296°
2026-04-25 09:23 51.70009 -146.30605 32302 ft 486 kts 296°
2026-04-25 09:23 51.73504 -146.39859 32297 ft 486 kts 296°
2026-04-25 09:24 51.77014 -146.49187 32299 ft 486 kts 296°
2026-04-25 09:24 51.80517 -146.58531 32333 ft 486 kts 296°
2026-04-25 09:25 51.83999 -146.67853 32301 ft 481 kts 296°
2026-04-25 09:25 51.87449 -146.77117 32299 ft 480 kts 296°
2026-04-25 09:26 51.90867 -146.86339 32300 ft 480 kts 296°
2026-04-25 09:26 51.94301 -146.95634 32302 ft 480 kts 296°
2026-04-25 09:27 51.97732 -147.04957 32304 ft 478 kts 296°
2026-04-25 09:27 52.01116 -147.14180 32302 ft 477 kts 296°
2026-04-25 09:28 52.04503 -147.23449 32302 ft 477 kts 296°
2026-04-25 09:28 52.07893 -147.32759 32301 ft 477 kts 296°
2026-04-25 09:29 52.11242 -147.41991 32303 ft 476 kts 296°
2026-04-25 09:29 52.14595 -147.51265 32301 ft 474 kts 295°
2026-04-25 09:30 52.17941 -147.60556 32296 ft 474 kts 295°
2026-04-25 09:30 52.21274 -147.69847 32297 ft 474 kts 295°
2026-04-25 09:31 52.24574 -147.79081 32307 ft 474 kts 295°
2026-04-25 09:31 52.27874 -147.88341 32296 ft 471 kts 295°
2026-04-25 09:32 52.31164 -147.97614 32295 ft 471 kts 295°
2026-04-25 09:32 52.34441 -148.06884 32290 ft 471 kts 295°
2026-04-25 09:33 52.37719 -148.16191 32290 ft 471 kts 295°
2026-04-25 09:33 52.40961 -148.25430 32294 ft 471 kts 295°
2026-04-25 09:34 52.44216 -148.34740 32287 ft 471 kts 295°
2026-04-25 09:34 52.47470 -148.44082 32290 ft 471 kts 294°
2026-04-25 09:35 52.50714 -148.53430 32282 ft 471 kts 294°
2026-04-25 09:35 52.53945 -148.62774 32287 ft 470 kts 294°
2026-04-25 09:36 52.57151 -148.72081 32291 ft 470 kts 294°
2026-04-25 09:36 52.60370 -148.81462 32284 ft 470 kts 294°
2026-04-25 09:37 52.63578 -148.90847 32281 ft 470 kts 294°
2026-04-25 09:37 52.66778 -149.00244 32288 ft 470 kts 294°
2026-04-25 09:38 52.69949 -149.09587 32276 ft 470 kts 294°
2026-04-25 09:38 52.73137 -149.19018 32276 ft 470 kts 294°
2026-04-25 09:39 52.76300 -149.28412 32273 ft 470 kts 294°
2026-04-25 09:39 52.79468 -149.37853 32267 ft 470 kts 294°
2026-04-25 09:40 52.84213 -149.52071 32270 ft 472 kts 294°
2026-04-25 09:40 52.87362 -149.61550 32271 ft 472 kts 294°
2026-04-25 09:41 52.90518 -149.71086 32268 ft 472 kts 294°
2026-04-25 09:41 52.93665 -149.80631 32301 ft 472 kts 294°
2026-04-25 09:42 52.96786 -149.90133 32260 ft 471 kts 294°
2026-04-25 09:42 52.99867 -149.99790 32294 ft 473 kts 289°
2026-04-25 09:43 53.01200 -150.04796 32420 ft 473 kts 288°
2026-04-25 09:43 53.02498 -150.09827 32577 ft 473 kts 288°
2026-04-25 09:43 53.03776 -150.14872 32739 ft 473 kts 288°
2026-04-25 09:43 53.05022 -150.19854 32891 ft 473 kts 288°
2026-04-25 09:44 53.06282 -150.24913 33093 ft 472 kts 288°
2026-04-25 09:44 53.07532 -150.29950 33308 ft 471 kts 288°
2026-04-25 09:44 53.08783 -150.34990 33474 ft 471 kts 288°
2026-04-25 09:44 53.10032 -150.40031 33605 ft 471 kts 288°
2026-04-25 09:45 53.11279 -150.45071 33740 ft 471 kts 288°
2026-04-25 09:45 53.12526 -150.50118 33890 ft 471 kts 288°
2026-04-25 09:45 53.13771 -150.55166 34038 ft 471 kts 288°
2026-04-25 09:45 53.15016 -150.60224 34166 ft 471 kts 288°
2026-04-25 09:46 53.17489 -150.70279 34268 ft 461 kts 288°
2026-04-25 09:46 53.19885 -150.80067 34241 ft 456 kts 288°
2026-04-25 09:47 53.22268 -150.89871 34243 ft 456 kts 288°
2026-04-25 09:47 53.24635 -150.99651 34234 ft 456 kts 287°
2026-04-25 09:48 53.27006 -151.09485 34235 ft 456 kts 287°
2026-04-25 09:48 53.29371 -151.19333 34233 ft 456 kts 287°
2026-04-25 09:49 53.31728 -151.29191 34239 ft 456 kts 287°
2026-04-25 09:49 53.34054 -151.38964 34226 ft 454 kts 287°
2026-04-25 09:50 53.36386 -151.48812 34226 ft 455 kts 287°
2026-04-25 09:50 53.38711 -151.58671 34220 ft 455 kts 287°
2026-04-25 09:51 53.41028 -151.68542 34222 ft 455 kts 287°
2026-04-25 09:51 53.43321 -151.78358 34214 ft 454 kts 287°
2026-04-25 09:52 53.45619 -151.88236 34206 ft 454 kts 287°
2026-04-25 09:52 53.47910 -151.98137 34206 ft 454 kts 287°
2026-04-25 09:53 53.50196 -152.08054 34228 ft 454 kts 286°
2026-04-25 09:53 53.52468 -152.17962 34212 ft 454 kts 286°
2026-04-25 09:54 53.54718 -152.27819 34193 ft 454 kts 286°
2026-04-25 09:54 53.56973 -152.37746 34204 ft 454 kts 286°
2026-04-25 09:55 53.58840 -152.45999 34182 ft 454 kts 286°
2026-04-25 09:55 53.61081 -152.55946 34182 ft 454 kts 286°
2026-04-25 09:56 53.63313 -152.65902 34184 ft 454 kts 286°
2026-04-25 09:56 53.65536 -152.75866 34170 ft 454 kts 286°
2026-04-25 09:57 53.67750 -152.85838 34165 ft 454 kts 285°
2026-04-25 09:57 53.69943 -152.95762 34165 ft 454 kts 285°
2026-04-25 09:58 53.72142 -153.05762 34168 ft 455 kts 286°
2026-04-25 09:58 53.74341 -153.15813 34161 ft 456 kts 286°
2026-04-25 09:59 53.76519 -153.25811 34151 ft 456 kts 285°
2026-04-25 09:59 53.78704 -153.35891 34151 ft 456 kts 285°
2026-04-25 10:00 53.80879 -153.45973 34139 ft 456 kts 285°
2026-04-25 10:00 53.83048 -153.56080 34140 ft 456 kts 286°
2026-04-25 10:01 53.85190 -153.66108 34127 ft 456 kts 286°
2026-04-25 10:01 53.87338 -153.76218 34127 ft 456 kts 286°
2026-04-25 10:02 53.89477 -153.86336 34116 ft 456 kts 285°
2026-04-25 10:02 53.91609 -153.96466 34134 ft 456 kts 285°
2026-04-25 10:03 53.93727 -154.06586 34100 ft 453 kts 285°
2026-04-25 10:03 53.95828 -154.16670 34088 ft 453 kts 285°
2026-04-25 10:04 53.97909 -154.26713 34089 ft 453 kts 285°
2026-04-25 10:04 53.99996 -154.36838 34080 ft 453 kts 285°
2026-04-25 10:05 54.02069 -154.46944 34091 ft 452 kts 285°
2026-04-25 10:05 54.04122 -154.56998 34070 ft 452 kts 285°
2026-04-25 10:06 54.06177 -154.67122 34071 ft 452 kts 285°
2026-04-25 10:06 54.08225 -154.77258 34056 ft 452 kts 285°
2026-04-25 10:07 54.10265 -154.87406 34061 ft 452 kts 285°
2026-04-25 10:07 54.12291 -154.97540 34040 ft 451 kts 285°
2026-04-25 10:08 54.14299 -155.07636 34043 ft 451 kts 285°
2026-04-25 10:08 54.16309 -155.17791 34033 ft 452 kts 285°
2026-04-25 10:09 54.18311 -155.27962 34034 ft 451 kts 285°
2026-04-25 10:09 54.20303 -155.38137 34020 ft 451 kts 284°
2026-04-25 10:10 54.22273 -155.48248 34022 ft 451 kts 284°
2026-04-25 10:10 54.24245 -155.58429 34004 ft 451 kts 285°
2026-04-25 10:11 54.26211 -155.68631 34004 ft 451 kts 284°
2026-04-25 10:11 54.28169 -155.78844 33994 ft 451 kts 284°
2026-04-25 10:12 54.30105 -155.88995 33990 ft 450 kts 284°
2026-04-25 10:13 54.33002 -156.04286 33977 ft 449 kts 284°
2026-04-25 10:13 54.34920 -156.14478 33963 ft 449 kts 284°
2026-04-25 10:14 54.36820 -156.24637 33955 ft 450 kts 284°
2026-04-25 10:14 54.38721 -156.34850 33945 ft 449 kts 284°
2026-04-25 10:15 54.40613 -156.45073 33947 ft 448 kts 284°
2026-04-25 10:15 54.42488 -156.55250 33933 ft 447 kts 284°
2026-04-25 10:16 54.44354 -156.65446 33928 ft 447 kts 284°
2026-04-25 10:16 54.46200 -156.75591 33920 ft 448 kts 284°
2026-04-25 10:17 54.48056 -156.85839 33917 ft 447 kts 284°
2026-04-25 10:17 54.49898 -156.96072 33911 ft 447 kts 284°
2026-04-25 10:18 54.51719 -157.06243 33910 ft 446 kts 284°
2026-04-25 10:18 54.53542 -157.16478 33897 ft 447 kts 284°
2026-04-25 10:19 54.55355 -157.26717 33900 ft 447 kts 284°
2026-04-25 10:19 54.57164 -157.36993 33891 ft 448 kts 284°
2026-04-25 10:20 54.58952 -157.47206 33893 ft 447 kts 284°
2026-04-25 10:20 54.60740 -157.57479 33867 ft 447 kts 283°
2026-04-25 10:21 54.62519 -157.67763 33883 ft 445 kts 283°
2026-04-25 10:21 54.64284 -157.78020 33873 ft 446 kts 284°
2026-04-25 10:22 54.66031 -157.88233 33871 ft 447 kts 283°
2026-04-25 10:22 54.67784 -157.98546 33877 ft 448 kts 283°
2026-04-25 10:23 54.69534 -158.08896 33870 ft 448 kts 283°
2026-04-25 10:23 54.71275 -158.19253 33865 ft 448 kts 283°
2026-04-25 10:24 54.73005 -158.29601 33865 ft 448 kts 283°
2026-04-25 10:24 54.74716 -158.39903 33861 ft 447 kts 283°
2026-04-25 10:25 54.76430 -158.50282 33861 ft 447 kts 283°
2026-04-25 10:25 54.78132 -158.60656 33862 ft 447 kts 283°
2026-04-25 10:26 54.79815 -158.70979 33861 ft 447 kts 283°
2026-04-25 10:26 54.81502 -158.81380 33859 ft 447 kts 283°
2026-04-25 10:27 54.83176 -158.91768 33859 ft 447 kts 283°
2026-04-25 10:27 54.84829 -159.02097 33860 ft 446 kts 283°
2026-04-25 10:28 54.86478 -159.12455 33859 ft 445 kts 283°
2026-04-25 10:28 54.88121 -159.22834 33856 ft 445 kts 283°
2026-04-25 10:29 54.89753 -159.33214 33856 ft 445 kts 283°
2026-04-25 10:29 54.91374 -159.43594 33856 ft 445 kts 283°
2026-04-25 10:30 54.92975 -159.53905 33853 ft 443 kts 283°
2026-04-25 10:30 54.94572 -159.64256 33857 ft 442 kts 283°
2026-04-25 10:31 54.96160 -159.74615 33854 ft 442 kts 283°
2026-04-25 10:31 54.97731 -159.84922 33856 ft 442 kts 283°
2026-04-25 10:32 54.99299 -159.95282 33856 ft 442 kts 283°
2026-04-25 10:32 55.00787 -160.05660 33856 ft 440 kts 280°
2026-04-25 10:33 55.01882 -160.16122 33859 ft 438 kts 278°
2026-04-25 10:33 55.02903 -160.26609 33859 ft 439 kts 278°
2026-04-25 10:34 55.03967 -160.37081 33872 ft 439 kts 279°
2026-04-25 10:34 55.05051 -160.47484 33874 ft 439 kts 279°
2026-04-25 10:35 55.06141 -160.57944 33876 ft 437 kts 279°
2026-04-25 10:35 55.07219 -160.68401 33877 ft 436 kts 279°
2026-04-25 10:36 55.08277 -160.78766 33874 ft 436 kts 279°
2026-04-25 10:36 55.09333 -160.89211 33871 ft 436 kts 279°
2026-04-25 10:37 55.10379 -160.99661 33865 ft 436 kts 279°
2026-04-25 10:37 55.11417 -161.10116 33863 ft 435 kts 279°
2026-04-25 10:38 55.12435 -161.20473 33863 ft 435 kts 279°
2026-04-25 10:38 55.13459 -161.30977 33870 ft 441 kts 278°
2026-04-25 10:39 55.14487 -161.41636 33874 ft 448 kts 278°
2026-04-25 10:39 55.15523 -161.52468 33881 ft 454 kts 278°
2026-04-25 10:40 55.16547 -161.63282 33878 ft 452 kts 278°
2026-04-25 10:40 55.17564 -161.74118 33890 ft 450 kts 278°
2026-04-25 10:41 55.18569 -161.84947 33889 ft 450 kts 278°
2026-04-25 10:41 55.19562 -161.95763 33909 ft 450 kts 278°
2026-04-25 10:42 55.20548 -162.06604 33910 ft 450 kts 278°
2026-04-25 10:42 55.21519 -162.17394 33937 ft 450 kts 278°
2026-04-25 10:43 55.22480 -162.28175 33961 ft 449 kts 278°
2026-04-25 10:43 55.23434 -162.39000 33958 ft 449 kts 278°
2026-04-25 10:44 55.24378 -162.49820 33959 ft 449 kts 278°
2026-04-25 10:44 55.25313 -162.60659 33963 ft 449 kts 278°
2026-04-25 10:45 55.26083 -162.69667 33960 ft 449 kts 277°
2026-04-25 10:45 55.26766 -162.80538 33963 ft 448 kts 273°
2026-04-25 10:46 55.27050 -162.91468 33961 ft 449 kts 272°
2026-04-25 10:46 55.27258 -163.02372 33958 ft 448 kts 271°
2026-04-25 10:47 55.27452 -163.13344 33953 ft 448 kts 271°
2026-04-25 10:47 55.27643 -163.24286 33936 ft 448 kts 271°
2026-04-25 10:48 55.27826 -163.35115 33959 ft 441 kts 271°
2026-04-25 10:48 55.27998 -163.45766 33955 ft 439 kts 271°
2026-04-25 10:49 55.28161 -163.56482 33957 ft 440 kts 271°
2026-04-25 10:49 55.28315 -163.67230 33957 ft 440 kts 271°
2026-04-25 10:50 55.28460 -163.77964 33952 ft 440 kts 271°
2026-04-25 10:50 55.28595 -163.88676 33955 ft 438 kts 271°
2026-04-25 10:51 55.28720 -163.99349 33958 ft 437 kts 271°
2026-04-25 10:51 55.28835 -164.09961 33958 ft 437 kts 271°
2026-04-25 10:52 55.28941 -164.20638 33948 ft 437 kts 271°
2026-04-25 10:52 55.29038 -164.31274 33957 ft 434 kts 271°
2026-04-25 10:53 55.29125 -164.41830 33961 ft 432 kts 270°
2026-04-25 10:53 55.29202 -164.52284 33964 ft 430 kts 270°
2026-04-25 10:54 55.29270 -164.62793 33963 ft 430 kts 270°
2026-04-25 10:54 55.29330 -164.73292 33963 ft 430 kts 270°
2026-04-25 10:55 55.29380 -164.83801 33966 ft 430 kts 270°
2026-04-25 10:55 55.29422 -164.94309 33975 ft 430 kts 270°
2026-04-25 10:56 55.29454 -165.04820 33966 ft 430 kts 270°
2026-04-25 10:56 55.29477 -165.15269 33966 ft 430 kts 270°
2026-04-25 10:57 55.29492 -165.25752 33963 ft 430 kts 270°
2026-04-25 10:57 55.29497 -165.36247 33963 ft 430 kts 270°
2026-04-25 10:58 55.29494 -165.46734 33963 ft 430 kts 270°
2026-04-25 10:58 55.29481 -165.57173 33964 ft 430 kts 269°
2026-04-25 10:59 55.29460 -165.67659 33963 ft 429 kts 269°
2026-04-25 10:59 55.29429 -165.78160 33963 ft 429 kts 269°
2026-04-25 11:00 55.29390 -165.88648 33964 ft 429 kts 269°
2026-04-25 11:00 55.29341 -165.99129 33966 ft 429 kts 269°
2026-04-25 11:01 55.29284 -166.09544 33972 ft 429 kts 269°
2026-04-25 11:01 55.29218 -166.20042 33964 ft 430 kts 269°
2026-04-25 11:02 55.29142 -166.30536 33960 ft 430 kts 269°
2026-04-25 11:02 55.29058 -166.41032 33960 ft 430 kts 269°
2026-04-25 11:03 55.28965 -166.51480 33962 ft 427 kts 269°
2026-04-25 11:03 55.28863 -166.61865 33964 ft 425 kts 269°
2026-04-25 11:04 55.28754 -166.72175 33958 ft 425 kts 268°
2026-04-25 11:04 55.28635 -166.82569 33958 ft 425 kts 268°
2026-04-25 11:05 55.28508 -166.92949 33955 ft 425 kts 268°
2026-04-25 11:05 55.28372 -167.03263 33955 ft 425 kts 268°
2026-04-25 11:06 55.28227 -167.13630 33952 ft 425 kts 268°
2026-04-25 11:06 55.28073 -167.23998 33958 ft 425 kts 268°
2026-04-25 11:07 55.27911 -167.34356 33947 ft 424 kts 268°
2026-04-25 11:07 55.27741 -167.44653 33947 ft 424 kts 268°
2026-04-25 11:08 55.27561 -167.55007 33949 ft 424 kts 268°
2026-04-25 11:08 55.27372 -167.65370 33946 ft 424 kts 268°
2026-04-25 11:09 55.27175 -167.75705 33944 ft 424 kts 268°
2026-04-25 11:09 55.26969 -167.86061 33943 ft 425 kts 267°
2026-04-25 11:10 55.26755 -167.96361 33947 ft 425 kts 267°
2026-04-25 11:10 55.26531 -168.06730 33941 ft 425 kts 267°
2026-04-25 11:11 55.26298 -168.17090 33940 ft 425 kts 267°
2026-04-25 11:11 55.26058 -168.27400 33938 ft 425 kts 267°
2026-04-25 11:12 55.25808 -168.37771 33935 ft 425 kts 267°
2026-04-25 11:12 55.25549 -168.48121 33933 ft 425 kts 267°
2026-04-25 11:13 55.25283 -168.58408 33933 ft 425 kts 267°
2026-04-25 11:13 55.25007 -168.68738 33937 ft 422 kts 266°
2026-04-25 11:14 55.24725 -168.78989 33936 ft 419 kts 266°
2026-04-25 11:14 55.24435 -168.89209 33936 ft 419 kts 266°
2026-04-25 11:15 55.24138 -168.99362 33930 ft 419 kts 266°
2026-04-25 11:15 55.23832 -169.09563 33930 ft 418 kts 266°
2026-04-25 11:16 55.23358 -169.24796 33928 ft 418 kts 266°
2026-04-25 11:16 55.23030 -169.34992 33928 ft 418 kts 266°
2026-04-25 11:17 55.22694 -169.45169 33922 ft 418 kts 266°
2026-04-25 11:17 55.22350 -169.55350 33925 ft 419 kts 265°
2026-04-25 11:18 55.21997 -169.65541 33919 ft 419 kts 265°
2026-04-25 11:18 55.21634 -169.75753 33918 ft 419 kts 265°
2026-04-25 11:19 55.21267 -169.85868 33919 ft 419 kts 265°
2026-04-25 11:19 55.20888 -169.96052 33920 ft 419 kts 265°
2026-04-25 11:20 55.20500 -170.06250 33927 ft 419 kts 265°
2026-04-25 11:20 55.20107 -170.16386 33914 ft 419 kts 265°
2026-04-25 11:21 55.19703 -170.26566 33912 ft 419 kts 265°
2026-04-25 11:21 55.19289 -170.36755 33912 ft 419 kts 265°
2026-04-25 11:22 55.18940 -170.45210 33911 ft 419 kts 265°
2026-04-25 11:22 55.18439 -170.57109 33908 ft 419 kts 264°
2026-04-25 11:23 55.18003 -170.67229 33912 ft 419 kts 264°
2026-04-25 11:23 55.17555 -170.77444 33905 ft 420 kts 264°
2026-04-25 11:24 55.17101 -170.87596 33904 ft 416 kts 264°
2026-04-25 11:24 55.16662 -170.97609 33903 ft 414 kts 264°
2026-04-25 11:25 55.16227 -171.07675 33900 ft 414 kts 264°
2026-04-25 11:25 55.15784 -171.17729 33906 ft 414 kts 264°
2026-04-25 11:26 55.15334 -171.27704 33900 ft 414 kts 264°
2026-04-25 11:26 55.14869 -171.37777 33901 ft 415 kts 264°
2026-04-25 11:27 55.14398 -171.47817 33891 ft 415 kts 264°
2026-04-25 11:27 55.13999 -171.56180 33891 ft 415 kts 264°
2026-04-25 11:28 55.13428 -171.67925 33889 ft 414 kts 263°
2026-04-25 11:28 55.12935 -171.77897 33897 ft 415 kts 263°
2026-04-25 11:29 55.12429 -171.87973 33880 ft 415 kts 263°
2026-04-25 11:29 55.11915 -171.98025 33884 ft 415 kts 263°
2026-04-25 11:30 55.11394 -172.08057 33890 ft 415 kts 263°
2026-04-25 11:30 55.10864 -172.18098 33884 ft 415 kts 263°
2026-04-25 11:31 55.10328 -172.28079 33885 ft 415 kts 263°
2026-04-25 11:31 55.09781 -172.38128 33880 ft 416 kts 263°
2026-04-25 11:32 55.09223 -172.48212 33881 ft 417 kts 263°
2026-04-25 11:32 55.08658 -172.58286 33880 ft 417 kts 262°
2026-04-25 11:33 55.08088 -172.68294 33875 ft 417 kts 262°
2026-04-25 11:33 55.07505 -172.78371 33871 ft 417 kts 262°
2026-04-25 11:34 55.07016 -172.86729 33871 ft 417 kts 262°
2026-04-25 11:34 55.06418 -172.96799 33874 ft 417 kts 262°
2026-04-25 11:35 55.05814 -173.06846 33866 ft 414 kts 262°
2026-04-25 11:35 55.05206 -173.16808 33870 ft 412 kts 262°
2026-04-25 11:36 55.04589 -173.26764 33863 ft 412 kts 262°
2026-04-25 11:36 55.03967 -173.36672 33866 ft 413 kts 262°
2026-04-25 11:37 55.03334 -173.46635 33865 ft 413 kts 261°
2026-04-25 11:37 55.02691 -173.56626 33861 ft 415 kts 261°
2026-04-25 11:38 55.02042 -173.66567 33861 ft 415 kts 261°
2026-04-25 11:38 55.01382 -173.76568 33864 ft 415 kts 261°
2026-04-25 11:39 55.00714 -173.86557 33864 ft 415 kts 261°
2026-04-25 11:39 55.00037 -173.96545 33865 ft 415 kts 261°
2026-04-25 11:40 54.99357 -174.06466 33858 ft 415 kts 261°
2026-04-25 11:40 54.98665 -174.16439 33855 ft 415 kts 261°
2026-04-25 11:41 54.97963 -174.26423 33859 ft 415 kts 261°
2026-04-25 11:41 54.97254 -174.36392 33855 ft 415 kts 261°
2026-04-25 11:42 54.96538 -174.46351 33857 ft 414 kts 261°
2026-04-25 11:42 54.95813 -174.56310 33862 ft 415 kts 260°
2026-04-25 11:43 54.95078 -174.66289 33849 ft 416 kts 260°
2026-04-25 11:43 54.94339 -174.76214 33848 ft 416 kts 260°
2026-04-25 11:44 54.93587 -174.86195 33846 ft 416 kts 260°
2026-04-25 11:44 54.92828 -174.96161 33844 ft 416 kts 260°
2026-04-25 11:45 54.92061 -175.06126 33842 ft 415 kts 260°
2026-04-25 11:45 54.91286 -175.16074 33843 ft 416 kts 259°
2026-04-25 11:46 54.90503 -175.26028 33839 ft 414 kts 259°
2026-04-25 11:46 54.89722 -175.35852 33841 ft 412 kts 259°
2026-04-25 11:47 54.88927 -175.45730 33837 ft 412 kts 259°
2026-04-25 11:47 54.88125 -175.55602 33838 ft 412 kts 259°
2026-04-25 11:48 54.87314 -175.65482 33868 ft 412 kts 259°
2026-04-25 11:48 54.86497 -175.75328 33833 ft 415 kts 259°
2026-04-25 11:49 54.85665 -175.85252 33830 ft 415 kts 259°
2026-04-25 11:49 54.84825 -175.95185 33836 ft 415 kts 259°
2026-04-25 11:50 54.83984 -176.05037 33829 ft 415 kts 259°
2026-04-25 11:50 54.83129 -176.14940 33830 ft 415 kts 259°
2026-04-25 11:51 54.82265 -176.24849 33837 ft 416 kts 258°
2026-04-25 11:51 54.81389 -176.34800 33825 ft 417 kts 258°
2026-04-25 11:52 54.80509 -176.44701 33820 ft 418 kts 258°
2026-04-25 11:52 54.79616 -176.54657 33824 ft 417 kts 258°
2026-04-25 11:53 54.78713 -176.64623 33821 ft 417 kts 258°
2026-04-25 11:53 54.77811 -176.74490 33817 ft 417 kts 258°
2026-04-25 11:54 54.76890 -176.84462 33818 ft 420 kts 258°
2026-04-25 11:55 54.75489 -176.99467 33815 ft 421 kts 258°
2026-04-25 11:55 54.74552 -177.09392 33815 ft 420 kts 258°
2026-04-25 11:56 54.73600 -177.19374 33812 ft 420 kts 257°
2026-04-25 11:56 54.72639 -177.29364 33811 ft 420 kts 257°
2026-04-25 11:57 54.71670 -177.39351 33809 ft 421 kts 257°
2026-04-25 11:57 54.70691 -177.49349 33805 ft 420 kts 257°
2026-04-25 11:58 54.69713 -177.59244 33804 ft 420 kts 257°
2026-04-25 11:58 54.68720 -177.69213 33802 ft 420 kts 257°
2026-04-25 11:59 54.67719 -177.79163 33802 ft 420 kts 257°
2026-04-25 11:59 54.66710 -177.89119 33803 ft 421 kts 257°
2026-04-25 12:00 54.65179 -178.04053 33801 ft 423 kts 257°
2026-04-25 12:01 54.63633 -178.19062 33795 ft 423 kts 257°
2026-04-25 12:01 54.62620 -178.29067 33788 ft 423 kts 257°
2026-04-25 12:02 54.61094 -178.43995 33790 ft 424 kts 257°
2026-04-25 12:02 54.60051 -178.54041 33782 ft 426 kts 257°
2026-04-25 12:03 54.58998 -178.64098 33785 ft 426 kts 256°
2026-04-25 12:03 54.57938 -178.74146 33782 ft 426 kts 256°
2026-04-25 12:04 54.56869 -178.84185 33779 ft 426 kts 256°
2026-04-25 12:04 54.55798 -178.94164 33802 ft 426 kts 256°
2026-04-25 12:05 54.54710 -179.04210 33775 ft 427 kts 256°
2026-04-25 12:05 54.53612 -179.14275 33769 ft 427 kts 256°
2026-04-25 12:06 54.52507 -179.24325 33768 ft 427 kts 256°
2026-04-25 12:06 54.51391 -179.34388 33775 ft 427 kts 256°
2026-04-25 12:07 54.50276 -179.44364 33766 ft 427 kts 256°
2026-04-25 12:07 54.49145 -179.54407 33765 ft 426 kts 256°
2026-04-25 12:08 54.48012 -179.64388 33766 ft 425 kts 256°
2026-04-25 12:08 54.46869 -179.74370 33765 ft 425 kts 255°
2026-04-25 12:09 54.45719 -179.84343 33763 ft 425 kts 255°
2026-04-25 12:09 54.44562 -179.94296 33760 ft 425 kts 255°
2026-04-25 12:10 54.43403 179.95810 33757 ft 425 kts 255°
2026-04-25 12:10 54.42224 179.85821 33756 ft 426 kts 255°
2026-04-25 12:11 54.41036 179.75829 33751 ft 427 kts 255°
2026-04-25 12:11 54.39841 179.65848 33754 ft 427 kts 255°
2026-04-25 12:12 54.38840 179.57546 33751 ft 427 kts 255°
2026-04-25 12:12 54.37431 179.45944 33787 ft 427 kts 255°
2026-04-25 12:13 54.36208 179.35961 33756 ft 429 kts 255°
2026-04-25 12:13 54.34970 179.25934 33756 ft 429 kts 255°
2026-04-25 12:14 54.33733 179.15970 33736 ft 429 kts 255°
2026-04-25 12:14 54.32480 179.05955 33750 ft 429 kts 254°
2026-04-25 12:15 54.31217 178.95943 33736 ft 429 kts 254°
2026-04-25 12:15 54.29955 178.86003 33745 ft 431 kts 254°
2026-04-25 12:16 54.28669 178.75953 33738 ft 432 kts 254°
2026-04-25 12:16 54.27376 178.65910 33737 ft 432 kts 254°
2026-04-25 12:17 54.26073 178.55863 33738 ft 432 kts 254°
2026-04-25 12:17 54.24771 178.45886 33739 ft 432 kts 254°
2026-04-25 12:18 54.23449 178.35842 33720 ft 433 kts 253°
2026-04-25 12:18 54.22127 178.25787 33730 ft 434 kts 254°
2026-04-25 12:19 54.20256 178.10709 33728 ft 434 kts 254°
2026-04-25 12:20 54.19000 178.00610 33724 ft 434 kts 254°
2026-04-25 12:20 54.17726 177.90534 33723 ft 434 kts 254°
2026-04-25 12:21 54.16437 177.80450 33730 ft 436 kts 254°
2026-04-25 12:21 54.15139 177.70376 33723 ft 437 kts 254°
2026-04-25 12:22 54.13824 177.60227 33722 ft 437 kts 253°
2026-04-25 12:22 54.12504 177.50113 33721 ft 437 kts 253°
2026-04-25 12:23 54.11173 177.39990 33713 ft 437 kts 253°
2026-04-25 12:23 54.10059 177.31570 33713 ft 438 kts 253°
2026-04-25 12:24 54.08483 177.19746 33705 ft 441 kts 253°
2026-04-25 12:24 54.07336 177.11197 33705 ft 441 kts 253°
2026-04-25 12:25 54.05971 177.01078 33705 ft 441 kts 253°
2026-04-25 12:25 54.04586 176.90889 33705 ft 441 kts 253°
2026-04-25 12:26 54.03195 176.80728 33716 ft 442 kts 253°
2026-04-25 12:26 54.01787 176.70521 33700 ft 444 kts 253°
2026-04-25 12:27 54.00375 176.60348 33697 ft 444 kts 253°
2026-04-25 12:27 53.98947 176.50121 33688 ft 444 kts 253°
2026-04-25 12:28 53.97513 176.39919 33688 ft 444 kts 253°
2026-04-25 12:28 53.96066 176.29706 33700 ft 445 kts 253°
2026-04-25 12:29 53.94606 176.19471 33685 ft 447 kts 253°
2026-04-25 12:29 53.93134 176.09209 33686 ft 447 kts 253°
2026-04-25 12:30 53.91663 175.99022 33681 ft 447 kts 252°
2026-04-25 12:30 53.90174 175.88778 33680 ft 447 kts 252°
2026-04-25 12:31 53.88677 175.78551 33692 ft 447 kts 252°
2026-04-25 12:31 53.87166 175.68299 33674 ft 449 kts 252°
2026-04-25 12:32 53.85643 175.58023 33668 ft 450 kts 252°
2026-04-25 12:32 53.84119 175.47812 33668 ft 449 kts 252°
2026-04-25 12:33 53.82578 175.37544 33662 ft 449 kts 252°
2026-04-25 12:33 53.81027 175.27289 33663 ft 450 kts 252°
2026-04-25 12:34 53.79469 175.17044 33657 ft 450 kts 252°
2026-04-25 12:34 53.77902 175.06806 33657 ft 449 kts 252°
2026-04-25 12:35 53.76326 174.96580 33660 ft 449 kts 252°
2026-04-25 12:35 53.74753 174.86430 33657 ft 449 kts 252°
2026-04-25 12:36 53.73157 174.76201 33667 ft 450 kts 252°
2026-04-25 12:36 53.71548 174.65953 33658 ft 452 kts 252°
2026-04-25 12:37 53.69929 174.55700 33655 ft 452 kts 252°
2026-04-25 12:37 53.68311 174.45515 33656 ft 452 kts 252°
2026-04-25 12:38 53.66675 174.35279 33653 ft 452 kts 252°
2026-04-25 12:38 53.65025 174.25020 33663 ft 452 kts 252°
2026-04-25 12:39 53.63365 174.14766 33642 ft 454 kts 252°
2026-04-25 12:39 53.61706 174.04575 33652 ft 454 kts 252°
2026-04-25 12:40 53.60025 173.94313 33641 ft 454 kts 251°
2026-04-25 12:40 53.58337 173.84065 33640 ft 454 kts 251°
2026-04-25 12:41 53.56647 173.73874 33638 ft 453 kts 251°
2026-04-25 12:41 53.54939 173.63628 33634 ft 455 kts 251°
2026-04-25 12:41 53.54082 173.58514 33750 ft 454 kts 251°
2026-04-25 12:42 53.53234 173.53460 33928 ft 453 kts 251°
2026-04-25 12:42 53.52665 173.50023 34054 ft 453 kts 252°
2026-04-25 12:42 53.51573 173.43237 34226 ft 453 kts 252°
2026-04-25 12:42 53.50758 173.38112 34358 ft 453 kts 252°
2026-04-25 12:43 53.49943 173.32996 34485 ft 453 kts 252°
2026-04-25 12:43 53.49125 173.27886 34605 ft 453 kts 252°
2026-04-25 12:43 53.47464 173.17627 34751 ft 457 kts 252°
2026-04-25 12:44 53.46625 173.12488 34892 ft 456 kts 252°
2026-04-25 12:44 53.45784 173.07348 35047 ft 456 kts 252°
2026-04-25 12:44 53.44109 172.97167 35272 ft 456 kts 252°
2026-04-25 12:45 53.43260 172.92031 35386 ft 456 kts 252°
2026-04-25 12:45 53.40700 172.76636 35637 ft 459 kts 252°
2026-04-25 12:46 53.38965 172.66287 35624 ft 462 kts 252°
2026-04-25 12:46 53.37221 172.55926 35625 ft 461 kts 252°
2026-04-25 12:47 53.35469 172.45586 35622 ft 461 kts 252°
2026-04-25 12:47 53.33722 172.35341 35625 ft 461 kts 252°
2026-04-25 12:48 53.31954 172.25030 35622 ft 461 kts 252°
2026-04-25 12:48 53.30172 172.14704 35620 ft 463 kts 252°
2026-04-25 12:49 53.28377 172.04360 35619 ft 463 kts 252°
2026-04-25 12:49 53.26587 171.94099 35616 ft 463 kts 251°
2026-04-25 12:50 53.24774 171.83768 35623 ft 463 kts 251°
2026-04-25 12:50 53.22949 171.73434 35629 ft 463 kts 252°
2026-04-25 12:51 53.21118 171.63120 35620 ft 464 kts 251°
2026-04-25 12:51 53.19275 171.52801 35624 ft 463 kts 251°
2026-04-25 12:52 53.17440 171.42576 35627 ft 462 kts 251°
2026-04-25 12:52 53.15583 171.32298 35626 ft 462 kts 251°
2026-04-25 12:53 53.13721 171.22047 35634 ft 463 kts 251°
2026-04-25 12:53 53.11846 171.11779 35634 ft 463 kts 251°
2026-04-25 12:54 53.09974 171.01586 35632 ft 463 kts 251°
2026-04-25 12:54 53.08082 170.91341 35634 ft 463 kts 251°
2026-04-25 12:55 53.06499 170.82809 35631 ft 463 kts 251°
2026-04-25 12:55 53.04264 170.70838 35634 ft 465 kts 251°
2026-04-25 12:56 53.02337 170.60570 35638 ft 465 kts 251°
2026-04-25 12:56 53.00415 170.50388 35639 ft 465 kts 251°
2026-04-25 12:57 52.98474 170.40133 35641 ft 465 kts 251°
2026-04-25 12:57 52.96534 170.29890 35642 ft 465 kts 251°
2026-04-25 12:58 52.94586 170.19654 35642 ft 465 kts 251°
2026-04-25 12:58 52.92664 170.09402 35641 ft 465 kts 252°
2026-04-25 12:59 52.90892 169.99159 35642 ft 465 kts 253°
2026-04-25 12:59 52.89119 169.88843 35641 ft 465 kts 252°
2026-04-25 13:00 52.87917 169.81957 35649 ft 466 kts 252°
2026-04-25 13:00 52.85494 169.68273 35647 ft 466 kts 252°
2026-04-25 13:01 52.83653 169.57966 35647 ft 467 kts 252°
2026-04-25 13:01 52.81803 169.47673 35647 ft 467 kts 252°
2026-04-25 13:02 52.79944 169.37382 35651 ft 467 kts 252°
2026-04-25 13:02 52.78074 169.27086 35658 ft 468 kts 252°
2026-04-25 13:03 52.76206 169.16854 35654 ft 468 kts 252°
2026-04-25 13:03 52.74318 169.06577 35655 ft 467 kts 252°
2026-04-25 13:04 52.72429 168.96346 35658 ft 466 kts 252°
2026-04-25 13:04 52.70528 168.86109 35666 ft 466 kts 252°
2026-04-25 13:05 52.68616 168.75874 35657 ft 467 kts 252°
2026-04-25 13:05 52.66708 168.65712 35668 ft 467 kts 252°
2026-04-25 13:06 52.64772 168.55454 35665 ft 467 kts 252°
2026-04-25 13:06 52.62833 168.45242 35674 ft 467 kts 252°
2026-04-25 13:07 52.60886 168.35037 35670 ft 468 kts 252°
2026-04-25 13:07 52.58938 168.24887 35676 ft 468 kts 252°
2026-04-25 13:08 52.56968 168.14671 35677 ft 468 kts 252°
2026-04-25 13:08 52.54991 168.04474 35682 ft 468 kts 252°
2026-04-25 13:09 52.53004 167.94286 35692 ft 468 kts 252°
2026-04-25 13:09 52.51008 167.84098 35678 ft 468 kts 252°
2026-04-25 13:10 52.49007 167.73943 35691 ft 467 kts 252°
2026-04-25 13:10 52.47009 167.63858 35694 ft 466 kts 252°
2026-04-25 13:11 52.44991 167.53723 35683 ft 467 kts 252°
2026-04-25 13:11 52.42966 167.43603 35685 ft 468 kts 252°
2026-04-25 13:12 52.40940 167.33532 35696 ft 468 kts 252°
2026-04-25 13:12 52.39576 167.26782 35708 ft 467 kts 252°
2026-04-25 13:13 52.36846 167.13341 35706 ft 467 kts 252°
2026-04-25 13:13 52.35134 167.04953 35706 ft 466 kts 251°
2026-04-25 13:14 52.33070 166.94893 35702 ft 467 kts 252°
2026-04-25 13:14 52.30991 166.84812 35715 ft 469 kts 251°
2026-04-25 13:15 52.28907 166.74754 35704 ft 468 kts 251°
2026-04-25 13:15 52.26813 166.64701 35727 ft 468 kts 251°
2026-04-25 13:16 52.24712 166.54663 35710 ft 466 kts 251°
2026-04-25 13:16 52.22602 166.44638 35717 ft 467 kts 252°
2026-04-25 13:17 52.20498 166.34687 35727 ft 467 kts 251°
2026-04-25 13:17 52.18368 166.24659 35728 ft 468 kts 251°
2026-04-25 13:18 52.16229 166.14642 35734 ft 466 kts 251°
2026-04-25 13:18 52.14102 166.04731 35738 ft 465 kts 252°
2026-04-25 13:19 52.11969 165.94841 35736 ft 461 kts 251°
2026-04-25 13:19 52.10189 165.86623 35744 ft 465 kts 251°
2026-04-25 13:20 52.07669 165.75039 35745 ft 465 kts 251°
2026-04-25 13:20 52.05508 165.65158 35745 ft 466 kts 251°
2026-04-25 13:21 52.03331 165.55256 35760 ft 464 kts 251°
2026-04-25 13:21 52.01141 165.45338 35756 ft 464 kts 251°
2026-04-25 13:22 51.98955 165.35491 35754 ft 462 kts 251°
2026-04-25 13:23 51.95672 165.20779 35763 ft 465 kts 251°
2026-04-25 13:23 51.93455 165.10908 35760 ft 468 kts 251°
2026-04-25 13:24 51.91219 165.00996 35769 ft 467 kts 251°
2026-04-25 13:24 51.88985 164.91137 35762 ft 466 kts 251°
2026-04-25 13:25 51.86764 164.81386 35768 ft 464 kts 251°
2026-04-25 13:25 51.84523 164.71590 35765 ft 464 kts 251°
2026-04-25 13:26 51.82265 164.61768 35770 ft 466 kts 251°
2026-04-25 13:26 51.79995 164.51932 35774 ft 467 kts 251°
2026-04-25 13:27 51.77710 164.42085 35779 ft 468 kts 251°
2026-04-25 13:27 51.75421 164.32263 35781 ft 467 kts 251°
2026-04-25 13:28 51.73124 164.22458 35784 ft 467 kts 251°
2026-04-25 13:28 51.70825 164.12677 35789 ft 467 kts 251°
2026-04-25 13:29 51.68523 164.02932 35788 ft 468 kts 251°
2026-04-25 13:29 51.66201 163.93145 35798 ft 468 kts 250°
2026-04-25 13:30 51.62693 163.78451 35794 ft 467 kts 250°
2026-04-25 13:31 51.58390 163.64400 35798 ft 470 kts 240°
2026-04-25 13:31 51.54904 163.55577 35801 ft 471 kts 239°
2026-04-25 13:32 51.51328 163.46771 35800 ft 470 kts 239°
2026-04-25 13:32 51.47753 163.37981 35806 ft 471 kts 239°
2026-04-25 13:33 51.44175 163.29169 35803 ft 471 kts 239°
2026-04-25 13:33 51.40592 163.20359 35809 ft 471 kts 239°
2026-04-25 13:34 51.37004 163.11565 35811 ft 471 kts 239°
2026-04-25 13:34 51.33409 163.02784 35796 ft 471 kts 239°
2026-04-25 13:35 51.29808 162.94022 35811 ft 471 kts 239°
2026-04-25 13:35 51.26224 162.85330 35821 ft 472 kts 239°
2026-04-25 13:36 51.22607 162.76586 35820 ft 470 kts 239°
2026-04-25 13:36 51.18993 162.67881 35820 ft 470 kts 239°
2026-04-25 13:37 51.15401 162.59255 35816 ft 470 kts 239°
2026-04-25 13:37 51.11773 162.50572 35812 ft 470 kts 239°
2026-04-25 13:38 51.08144 162.41917 35830 ft 470 kts 238°
2026-04-25 13:38 51.04505 162.33265 35820 ft 470 kts 238°
2026-04-25 13:39 51.00861 162.24633 35827 ft 470 kts 238°
2026-04-25 13:39 50.97230 162.16058 35832 ft 470 kts 238°
2026-04-25 13:40 50.93572 162.07448 35833 ft 470 kts 238°
2026-04-25 13:40 50.89905 161.98844 35819 ft 470 kts 238°
2026-04-25 13:41 50.86235 161.90265 35828 ft 470 kts 238°
2026-04-25 13:41 50.82565 161.81714 35836 ft 469 kts 238°
2026-04-25 13:42 50.78897 161.73191 35837 ft 468 kts 238°
2026-04-25 13:42 50.75247 161.64739 35837 ft 469 kts 238°
2026-04-25 13:43 50.71566 161.56243 35841 ft 469 kts 238°
2026-04-25 13:43 50.67878 161.47759 35840 ft 469 kts 238°
2026-04-25 13:44 50.64178 161.39275 35845 ft 469 kts 238°
2026-04-25 13:44 50.60476 161.30812 35845 ft 469 kts 238°
2026-04-25 13:45 50.56793 161.22423 35844 ft 469 kts 238°
2026-04-25 13:45 50.53084 161.13999 35843 ft 469 kts 238°
2026-04-25 13:46 50.49364 161.05579 35849 ft 469 kts 238°
2026-04-25 13:46 50.45638 160.97170 35848 ft 468 kts 238°
2026-04-25 13:47 50.41911 160.88788 35852 ft 468 kts 238°
2026-04-25 13:47 50.38177 160.80417 35857 ft 468 kts 238°
2026-04-25 13:48 50.34462 160.72112 35844 ft 468 kts 238°
2026-04-25 13:48 50.30715 160.63764 35856 ft 468 kts 238°
2026-04-25 13:49 50.26967 160.55440 35856 ft 468 kts 238°
2026-04-25 13:49 50.23210 160.47123 35862 ft 468 kts 238°
2026-04-25 13:50 50.19468 160.38864 35862 ft 468 kts 238°
2026-04-25 13:50 50.15691 160.30581 35864 ft 468 kts 238°
2026-04-25 13:51 50.11901 160.22317 35868 ft 468 kts 237°
2026-04-25 13:51 50.08107 160.14069 35865 ft 468 kts 237°
2026-04-25 13:52 50.04313 160.05843 35870 ft 467 kts 237°
2026-04-25 13:52 50.00512 159.97627 35865 ft 467 kts 237°
2026-04-25 13:53 49.96739 159.89493 35873 ft 467 kts 237°
2026-04-25 13:53 49.92929 159.81306 35873 ft 467 kts 237°
2026-04-25 13:54 49.89117 159.73140 35873 ft 467 kts 237°
2026-04-25 13:54 49.85302 159.64993 35872 ft 467 kts 237°
2026-04-25 13:55 49.81477 159.56850 35877 ft 467 kts 237°
2026-04-25 13:55 49.77645 159.48716 35882 ft 467 kts 237°
2026-04-25 13:56 49.73833 159.40651 35881 ft 467 kts 237°
2026-04-25 13:56 49.69968 159.32505 35887 ft 467 kts 237°
2026-04-25 13:57 49.66079 159.24527 35884 ft 467 kts 236°
2026-04-25 13:57 49.62145 159.16560 35895 ft 467 kts 236°
2026-04-25 13:58 49.58215 159.08603 35894 ft 467 kts 236°
2026-04-25 13:58 49.54276 159.00630 35900 ft 466 kts 236°
2026-04-25 13:59 49.50337 158.92673 35907 ft 466 kts 236°
2026-04-25 13:59 49.46421 158.84785 35906 ft 466 kts 236°
2026-04-25 14:00 49.42472 158.76857 35913 ft 466 kts 236°
2026-04-25 14:00 49.38548 158.69002 35909 ft 466 kts 236°
2026-04-25 14:01 49.34600 158.61123 35922 ft 466 kts 236°
2026-04-25 14:01 49.31310 158.54574 35913 ft 465 kts 236°
2026-04-25 14:02 49.27357 158.46728 35928 ft 464 kts 236°
2026-04-25 14:02 49.23407 158.38910 35938 ft 464 kts 236°
2026-04-25 14:03 49.19454 158.31107 35936 ft 464 kts 236°
2026-04-25 14:03 49.15518 158.23361 35934 ft 464 kts 236°
2026-04-25 14:04 49.11563 158.15602 35940 ft 463 kts 236°
2026-04-25 14:04 49.07596 158.07843 35946 ft 463 kts 236°
2026-04-25 14:05 49.03633 158.00113 35949 ft 463 kts 236°
2026-04-25 14:05 48.99659 157.92383 35955 ft 463 kts 236°
2026-04-25 14:06 48.95678 157.84662 35964 ft 463 kts 236°
2026-04-25 14:06 48.91700 157.76972 35962 ft 462 kts 236°
2026-04-25 14:07 48.87720 157.69300 35970 ft 462 kts 236°
2026-04-25 14:07 48.83767 157.61698 35963 ft 462 kts 236°
2026-04-25 14:08 48.79780 157.54053 35970 ft 461 kts 236°
2026-04-25 14:08 48.75790 157.46427 35979 ft 460 kts 236°
2026-04-25 14:09 48.71804 157.38826 35979 ft 460 kts 236°
2026-04-25 14:09 48.67816 157.31244 35983 ft 460 kts 236°
2026-04-25 14:10 48.63849 157.23725 35978 ft 460 kts 236°
2026-04-25 14:10 48.59853 157.16172 35991 ft 459 kts 236°
2026-04-25 14:11 48.55854 157.08634 35992 ft 459 kts 236°
2026-04-25 14:11 48.51855 157.01120 35999 ft 459 kts 236°
2026-04-25 14:12 48.47856 156.93624 35988 ft 458 kts 237°
2026-04-25 14:12 48.43863 156.86159 36004 ft 457 kts 237°
2026-04-25 14:13 48.39891 156.78756 36009 ft 457 kts 237°
2026-04-25 14:13 48.35892 156.71321 36012 ft 457 kts 236°
2026-04-25 14:14 48.31885 156.63893 36019 ft 457 kts 236°
2026-04-25 14:14 48.27876 156.56483 36016 ft 455 kts 237°
2026-04-25 14:15 48.23884 156.49126 36022 ft 455 kts 237°
2026-04-25 14:15 48.19885 156.41771 36032 ft 455 kts 237°
2026-04-25 14:16 48.15879 156.34427 36029 ft 455 kts 237°
2026-04-25 14:16 48.11872 156.27101 36030 ft 453 kts 237°
2026-04-25 14:17 48.07905 156.19869 36035 ft 452 kts 237°
2026-04-25 14:17 48.03888 156.12561 36034 ft 452 kts 237°
2026-04-25 14:18 47.99914 156.05352 36040 ft 452 kts 237°
2026-04-25 14:18 47.95899 155.98089 36031 ft 452 kts 237°
2026-04-25 14:19 47.91900 155.90876 36049 ft 451 kts 237°
2026-04-25 14:19 47.87893 155.83667 36056 ft 451 kts 237°
2026-04-25 14:20 47.83890 155.76484 36055 ft 451 kts 237°
2026-04-25 14:20 47.79905 155.69351 36053 ft 451 kts 237°
2026-04-25 14:21 47.75898 155.62202 36057 ft 449 kts 237°
2026-04-25 14:21 47.71891 155.55071 36065 ft 448 kts 237°
2026-04-25 14:22 47.67898 155.47979 36064 ft 448 kts 237°
2026-04-25 14:22 47.63897 155.40890 36070 ft 448 kts 237°
2026-04-25 14:23 47.59921 155.33868 36067 ft 447 kts 237°
2026-04-25 14:23 47.55924 155.26828 36080 ft 446 kts 237°
2026-04-25 14:24 47.51927 155.19805 36077 ft 446 kts 237°
2026-04-25 14:24 47.47923 155.12787 36076 ft 446 kts 237°
2026-04-25 14:25 47.43916 155.05782 36083 ft 446 kts 236°
2026-04-25 14:25 47.39916 154.98810 36080 ft 444 kts 236°
2026-04-25 14:26 47.35919 154.91860 36093 ft 443 kts 236°
2026-04-25 14:26 47.31922 154.84927 36096 ft 443 kts 236°
2026-04-25 14:27 47.27924 154.78008 36100 ft 443 kts 236°
2026-04-25 14:27 47.23942 154.71136 36105 ft 443 kts 236°
2026-04-25 14:28 47.19926 154.64223 36102 ft 444 kts 236°
2026-04-25 14:28 47.15904 154.57318 36105 ft 444 kts 236°
2026-04-25 14:29 47.11914 154.50483 36105 ft 444 kts 236°
2026-04-25 14:29 47.07897 154.43621 36113 ft 442 kts 236°
2026-04-25 14:30 47.03878 154.36775 36118 ft 442 kts 236°
2026-04-25 14:30 46.97877 154.26581 36121 ft 441 kts 236°
2026-04-25 14:31 46.93863 154.19783 36096 ft 441 kts 235°
2026-04-25 14:31 46.89844 154.12995 36131 ft 440 kts 235°
2026-04-25 14:32 46.85828 154.06227 36131 ft 440 kts 235°
2026-04-25 14:32 46.81813 153.99478 36136 ft 440 kts 235°
2026-04-25 14:33 46.77812 153.92770 36134 ft 440 kts 235°
2026-04-25 14:33 46.73785 153.86035 36137 ft 440 kts 235°
2026-04-25 14:34 46.69754 153.79310 36141 ft 440 kts 235°
2026-04-25 14:34 46.65719 153.72595 36141 ft 440 kts 235°
2026-04-25 14:35 46.61701 153.65925 36136 ft 440 kts 235°
2026-04-25 14:35 46.57664 153.59241 36147 ft 439 kts 234°
2026-04-25 14:36 46.53624 153.52566 36154 ft 439 kts 234°
2026-04-25 14:36 46.49586 153.45910 36154 ft 439 kts 234°
2026-04-25 14:37 46.45558 153.39290 36154 ft 439 kts 234°
2026-04-25 14:37 46.41509 153.32649 36149 ft 439 kts 234°
2026-04-25 14:38 46.37452 153.26012 36156 ft 439 kts 234°
2026-04-25 14:38 46.33418 153.19428 36162 ft 439 kts 234°
2026-04-25 14:39 46.29351 153.12807 36165 ft 439 kts 234°
2026-04-25 14:39 46.25286 153.06206 36134 ft 439 kts 234°
2026-04-25 14:40 46.21218 152.99615 36167 ft 439 kts 234°
2026-04-25 14:40 46.17128 152.93059 36168 ft 439 kts 234°
2026-04-25 14:41 46.13052 152.86575 36174 ft 439 kts 233°
2026-04-25 14:41 46.08942 152.80049 36154 ft 439 kts 234°
2026-04-25 14:42 46.06196 152.75694 36180 ft 439 kts 234°
2026-04-25 14:42 46.00721 152.67024 36182 ft 439 kts 234°
2026-04-25 14:43 45.96633 152.60566 36180 ft 439 kts 234°
2026-04-25 14:43 45.92517 152.54081 36189 ft 439 kts 234°
2026-04-25 14:44 45.88397 152.47608 36185 ft 438 kts 234°
2026-04-25 14:44 45.84279 152.41151 36190 ft 438 kts 234°
2026-04-25 14:45 45.80163 152.34711 36192 ft 438 kts 234°
2026-04-25 14:45 45.76042 152.28279 36194 ft 438 kts 234°
2026-04-25 14:46 45.71916 152.21858 36199 ft 438 kts 234°
2026-04-25 14:46 45.67814 152.15486 36203 ft 437 kts 234°
2026-04-25 14:47 45.65051 152.11202 36203 ft 437 kts 234°
2026-04-25 14:47 45.59556 152.02703 36205 ft 438 kts 234°
2026-04-25 14:48 45.56116 151.97395 36205 ft 438 kts 234°
2026-04-25 14:48 45.51972 151.91015 36208 ft 438 kts 234°
2026-04-25 14:49 45.47831 151.84656 36208 ft 437 kts 234°
2026-04-25 14:49 45.43690 151.78312 36209 ft 437 kts 233°
2026-04-25 14:50 45.39566 151.72006 36207 ft 437 kts 234°
2026-04-25 14:50 45.35418 151.65679 36210 ft 437 kts 234°
2026-04-25 14:51 45.31264 151.59357 36216 ft 437 kts 234°
2026-04-25 14:51 45.27105 151.53043 36217 ft 437 kts 234°
2026-04-25 14:52 45.22934 151.46727 36207 ft 437 kts 234°
2026-04-25 14:52 45.19478 151.41505 36225 ft 436 kts 234°
2026-04-25 14:53 45.14616 151.34171 36220 ft 436 kts 234°
2026-04-25 14:53 45.10454 151.27909 36213 ft 436 kts 234°
2026-04-25 14:54 45.06320 151.21703 36215 ft 436 kts 235°
2026-04-25 14:54 45.02171 151.15495 36225 ft 433 kts 235°
2026-04-25 14:55 44.98040 151.09323 36226 ft 432 kts 235°
2026-04-25 14:55 44.93905 151.03153 36229 ft 432 kts 235°
2026-04-25 14:56 44.89765 150.96994 36212 ft 432 kts 235°
2026-04-25 14:56 44.85646 150.90885 36234 ft 428 kts 235°
2026-04-25 14:57 44.81568 150.84847 36233 ft 427 kts 235°
2026-04-25 14:57 44.77454 150.78764 36236 ft 427 kts 235°
2026-04-25 14:58 44.73373 150.72744 36215 ft 428 kts 235°
2026-04-25 14:58 44.69266 150.66704 36235 ft 426 kts 235°
2026-04-25 14:59 44.65163 150.60682 36239 ft 425 kts 235°
2026-04-25 14:59 44.61085 150.54707 36240 ft 425 kts 235°
2026-04-25 15:00 44.56982 150.48709 36229 ft 425 kts 234°
2026-04-25 15:00 44.52878 150.42723 36249 ft 425 kts 234°
2026-04-25 15:01 44.48771 150.36745 36246 ft 426 kts 234°
2026-04-25 15:01 44.44689 150.30819 36249 ft 426 kts 234°
2026-04-25 15:02 44.40578 150.24863 36249 ft 426 kts 234°
2026-04-25 15:02 44.36457 150.18901 36248 ft 426 kts 234°
2026-04-25 15:03 44.32325 150.12941 36252 ft 426 kts 234°
2026-04-25 15:03 44.28196 150.06998 36255 ft 426 kts 234°
2026-04-25 15:04 44.24065 150.01064 36257 ft 426 kts 234°
2026-04-25 15:04 44.19949 149.95162 36255 ft 427 kts 234°
2026-04-25 15:05 44.15795 149.89221 36257 ft 427 kts 234°
2026-04-25 15:06 44.09600 149.80382 36264 ft 427 kts 233°
2026-04-25 15:06 44.05441 149.74465 36253 ft 427 kts 233°
2026-04-25 15:07 44.01272 149.68546 36258 ft 427 kts 233°
2026-04-25 15:07 43.97115 149.62658 36263 ft 427 kts 233°
2026-04-25 15:08 43.92952 149.56773 36264 ft 427 kts 233°
2026-04-25 15:08 43.88794 149.50906 36263 ft 427 kts 233°
2026-04-25 15:09 43.84655 149.45081 36267 ft 427 kts 233°
2026-04-25 15:09 43.78404 149.36303 36268 ft 427 kts 233°
2026-04-25 15:10 43.74225 149.30451 36231 ft 427 kts 233°
2026-04-25 15:11 43.67958 149.21697 36265 ft 427 kts 233°
2026-04-25 15:11 43.63769 149.15862 36264 ft 427 kts 233°
2026-04-25 15:12 43.57488 149.07137 36242 ft 426 kts 233°
2026-04-25 15:12 43.54718 149.03297 36272 ft 426 kts 233°
2026-04-25 15:13 43.47040 148.92682 36276 ft 426 kts 233°
2026-04-25 15:14 43.42866 148.86927 36276 ft 426 kts 233°
2026-04-25 15:14 43.38667 148.81150 36268 ft 426 kts 233°
2026-04-25 15:15 43.34467 148.75385 36281 ft 426 kts 233°
2026-04-25 15:15 43.30267 148.69631 36280 ft 426 kts 233°
2026-04-25 15:16 43.26057 148.63876 36279 ft 426 kts 233°
2026-04-25 15:16 43.19781 148.55317 36280 ft 426 kts 232°
2026-04-25 15:17 43.13465 148.46731 36285 ft 426 kts 232°
2026-04-25 15:18 43.09256 148.41024 36283 ft 426 kts 232°
2026-04-25 15:18 43.02960 148.32508 36281 ft 426 kts 232°
2026-04-25 15:19 43.00142 148.28705 36287 ft 425 kts 232°
2026-04-25 15:19 42.94529 148.21146 36287 ft 425 kts 232°
2026-04-25 15:20 42.90310 148.15479 36285 ft 425 kts 232°
2026-04-25 15:20 42.86097 148.09830 36290 ft 424 kts 232°
2026-04-25 15:21 42.81904 148.04219 36290 ft 424 kts 232°
2026-04-25 15:21 42.77681 147.98579 36291 ft 424 kts 232°
2026-04-25 15:22 42.73464 147.92958 36287 ft 424 kts 231°
2026-04-25 15:22 42.69242 147.87343 36287 ft 424 kts 231°
2026-04-25 15:23 42.65022 147.81741 36290 ft 424 kts 231°
2026-04-25 15:23 42.60820 147.76174 36289 ft 424 kts 231°
2026-04-25 15:24 42.56588 147.70580 36285 ft 423 kts 231°
2026-04-25 15:24 42.53769 147.66860 36288 ft 422 kts 231°
2026-04-25 15:25 42.48159 147.59470 36299 ft 422 kts 231°
2026-04-25 15:25 42.43946 147.53932 36274 ft 422 kts 231°
2026-04-25 15:26 42.39757 147.48436 36295 ft 422 kts 231°
2026-04-25 15:26 42.35539 147.42913 36290 ft 422 kts 231°
2026-04-25 15:27 42.31322 147.37390 36288 ft 422 kts 231°
2026-04-25 15:28 42.24994 147.29122 36292 ft 422 kts 231°
2026-04-25 15:28 42.20799 147.23657 36298 ft 422 kts 231°
2026-04-25 15:29 42.16570 147.18159 36295 ft 422 kts 231°
2026-04-25 15:29 42.12329 147.12657 36281 ft 422 kts 230°
2026-04-25 15:30 42.08123 147.07209 36291 ft 422 kts 230°
2026-04-25 15:30 42.03889 147.01737 36292 ft 422 kts 230°
2026-04-25 15:31 41.99653 146.96272 36285 ft 422 kts 230°
2026-04-25 15:31 41.95411 146.90811 36281 ft 422 kts 230°
2026-04-25 15:32 41.91165 146.85356 36291 ft 422 kts 230°
2026-04-25 15:32 41.86952 146.79952 36282 ft 421 kts 230°
2026-04-25 15:33 41.80597 146.71793 36271 ft 421 kts 230°
2026-04-25 15:33 41.76365 146.66377 36294 ft 420 kts 230°
2026-04-25 15:34 41.72131 146.60970 36295 ft 420 kts 230°
2026-04-25 15:34 41.69326 146.57395 36294 ft 420 kts 230°
2026-04-25 15:35 41.61562 146.47522 36289 ft 420 kts 230°
2026-04-25 15:36 41.55199 146.39456 36290 ft 420 kts 230°
2026-04-25 15:36 41.51667 146.34989 36287 ft 420 kts 230°
2026-04-25 15:37 41.47413 146.29618 36284 ft 420 kts 230°
2026-04-25 15:37 41.43170 146.24272 36289 ft 419 kts 230°
2026-04-25 15:38 41.38925 146.18932 36288 ft 419 kts 230°
2026-04-25 15:38 41.34703 146.13631 36285 ft 419 kts 229°
2026-04-25 15:39 41.30450 146.08301 36290 ft 419 kts 229°
2026-04-25 15:39 41.26209 146.02997 36290 ft 419 kts 229°
2026-04-25 15:40 41.22678 145.98588 36290 ft 419 kts 229°
2026-04-25 15:40 41.17726 145.92416 36277 ft 418 kts 229°
2026-04-25 15:41 41.13474 145.87129 36294 ft 417 kts 229°
2026-04-25 15:41 41.09270 145.81910 36291 ft 417 kts 229°
2026-04-25 15:42 41.05033 145.76659 36292 ft 417 kts 229°
2026-04-25 15:42 41.00800 145.71423 36291 ft 417 kts 229°
2026-04-25 15:43 40.96561 145.66189 36293 ft 416 kts 229°
2026-04-25 15:43 40.92317 145.60959 36288 ft 416 kts 229°
2026-04-25 15:44 40.88072 145.55738 36277 ft 416 kts 229°
2026-04-25 15:44 40.83849 145.50553 36275 ft 416 kts 229°
2026-04-25 15:45 40.79616 145.45366 36294 ft 414 kts 229°
2026-04-25 15:45 40.76109 145.41076 36304 ft 413 kts 229°
2026-04-25 15:46 40.71171 145.35043 36292 ft 414 kts 229°
2026-04-25 15:46 40.66942 145.29888 36296 ft 414 kts 229°
2026-04-25 15:47 40.62738 145.24773 36298 ft 414 kts 229°
2026-04-25 15:47 40.58507 145.19634 36298 ft 414 kts 229°
2026-04-25 15:48 40.54271 145.14500 36293 ft 413 kts 229°
2026-04-25 15:48 40.50043 145.09384 36286 ft 412 kts 229°
2026-04-25 15:49 40.45841 145.04308 36295 ft 411 kts 229°
2026-04-25 15:49 40.41886 144.98972 36281 ft 404 kts 237°
2026-04-25 15:50 40.38781 144.92887 36292 ft 400 kts 242°
2026-04-25 15:50 40.35877 144.86654 36292 ft 400 kts 243°
2026-04-25 15:51 40.33500 144.81488 36287 ft 400 kts 243°
2026-04-25 15:51 40.30118 144.74196 36287 ft 400 kts 242°
2026-04-25 15:52 40.27220 144.67996 36288 ft 400 kts 242°
2026-04-25 15:52 40.24306 144.61785 36284 ft 400 kts 242°
2026-04-25 15:53 40.21388 144.55576 36280 ft 401 kts 242°
2026-04-25 15:53 40.18459 144.49357 36279 ft 401 kts 242°
2026-04-25 15:54 40.15547 144.43183 36284 ft 400 kts 242°
2026-04-25 15:54 40.12619 144.36989 36277 ft 400 kts 242°
2026-04-25 15:55 40.09686 144.30795 36279 ft 400 kts 242°
2026-04-25 15:55 40.06752 144.24612 36281 ft 400 kts 242°
2026-04-25 15:56 40.03838 144.18483 36277 ft 399 kts 242°
2026-04-25 15:56 40.00905 144.12328 36281 ft 399 kts 242°
2026-04-25 15:57 39.97970 144.06179 36279 ft 399 kts 242°
2026-04-25 15:57 39.95029 144.00029 36287 ft 399 kts 242°
2026-04-25 15:58 39.92087 143.93890 36273 ft 399 kts 242°
2026-04-25 15:58 39.89157 143.87787 36273 ft 399 kts 242°
2026-04-25 15:59 39.86209 143.81661 36288 ft 399 kts 242°
2026-04-25 15:59 39.83268 143.75559 36276 ft 397 kts 242°
2026-04-25 16:00 39.81313 143.71510 36278 ft 396 kts 242°
2026-04-25 16:00 39.77407 143.63436 36278 ft 395 kts 242°
2026-04-25 16:01 39.74474 143.57386 36264 ft 395 kts 242°
2026-04-25 16:01 39.71562 143.51392 36270 ft 394 kts 242°
2026-04-25 16:02 39.68638 143.45384 36273 ft 394 kts 242°
2026-04-25 16:02 39.65709 143.39376 36273 ft 394 kts 241°
2026-04-25 16:03 39.62774 143.33369 36268 ft 393 kts 241°
2026-04-25 16:03 39.59840 143.27376 36267 ft 393 kts 241°
2026-04-25 16:04 39.56904 143.21387 36269 ft 393 kts 241°
2026-04-25 16:04 39.53965 143.15406 36268 ft 393 kts 241°
2026-04-25 16:05 39.51041 143.09467 36265 ft 393 kts 241°
2026-04-25 16:06 39.46624 143.00515 36265 ft 393 kts 241°
2026-04-25 16:06 39.43672 142.94546 36266 ft 393 kts 241°
2026-04-25 16:07 39.40715 142.88578 36262 ft 393 kts 241°
2026-04-25 16:07 39.37761 142.82627 36265 ft 393 kts 241°
2026-04-25 16:08 39.34803 142.76680 36265 ft 393 kts 241°
2026-04-25 16:08 39.31839 142.70733 36268 ft 393 kts 241°
2026-04-25 16:09 39.28890 142.64827 36265 ft 393 kts 241°
2026-04-25 16:09 39.25926 142.58900 36266 ft 393 kts 241°
2026-04-25 16:10 39.22853 142.53048 36263 ft 395 kts 236°
2026-04-25 16:10 39.19344 142.47552 36255 ft 396 kts 234°
2026-04-25 16:11 39.15790 142.42188 36263 ft 396 kts 234°
2026-04-25 16:11 39.12206 142.36819 36263 ft 393 kts 234°
2026-04-25 16:12 39.08651 142.31488 36265 ft 392 kts 234°
2026-04-25 16:12 39.05105 142.26165 36263 ft 391 kts 234°
2026-04-25 16:13 39.01561 142.20852 36261 ft 391 kts 234°
2026-04-25 16:13 38.98012 142.15540 36264 ft 391 kts 234°
2026-04-25 16:14 38.94485 142.10271 36266 ft 391 kts 234°
2026-04-25 16:14 38.90931 142.04970 36268 ft 391 kts 234°
2026-04-25 16:15 38.87374 141.99674 36267 ft 391 kts 234°
2026-04-25 16:15 38.83815 141.94384 36267 ft 391 kts 234°
2026-04-25 16:16 38.80255 141.89103 36265 ft 391 kts 234°
2026-04-25 16:16 38.76696 141.83832 36268 ft 390 kts 234°
2026-04-25 16:17 38.73167 141.78613 36266 ft 390 kts 234°
2026-04-25 16:17 38.69609 141.73359 36266 ft 389 kts 234°
2026-04-25 16:18 38.66086 141.68172 36265 ft 382 kts 234°
2026-04-25 16:18 38.62632 141.63091 36266 ft 380 kts 234°
2026-04-25 16:19 38.59162 141.57987 36265 ft 380 kts 234°
2026-04-25 16:19 38.55682 141.52878 36264 ft 381 kts 234°
2026-04-25 16:20 38.50450 141.45217 36261 ft 381 kts 234°
2026-04-25 16:21 38.45213 141.37568 36259 ft 381 kts 234°
2026-04-25 16:21 38.41738 141.32505 36256 ft 381 kts 234°
2026-04-25 16:22 38.38243 141.27420 36258 ft 380 kts 234°
2026-04-25 16:22 38.34751 141.22346 36255 ft 380 kts 234°
2026-04-25 16:23 38.31262 141.17285 36250 ft 380 kts 234°
2026-04-25 16:23 38.28362 141.13083 36247 ft 380 kts 234°
2026-04-25 16:24 38.24308 141.07224 36241 ft 376 kts 234°
2026-04-25 16:24 38.21425 141.03065 36242 ft 372 kts 234°
2026-04-25 16:25 38.18029 140.98159 36231 ft 371 kts 235°
2026-04-25 16:25 38.15155 140.92801 36246 ft 364 kts 246°
2026-04-25 16:26 38.13447 140.86787 36241 ft 363 kts 257°
2026-04-25 16:26 38.12699 140.80430 36236 ft 364 kts 261°
2026-04-25 16:27 38.12132 140.74041 36242 ft 364 kts 261°
2026-04-25 16:27 38.11568 140.67635 36243 ft 367 kts 261°
2026-04-25 16:28 38.10977 140.61227 36256 ft 368 kts 261°
2026-04-25 16:28 38.10337 140.54764 36259 ft 368 kts 260°
2026-04-25 16:29 38.09639 140.48323 36254 ft 368 kts 260°
2026-04-25 16:29 38.08938 140.41875 36253 ft 368 kts 260°
2026-04-25 16:30 38.08247 140.35466 36254 ft 368 kts 260°
2026-04-25 16:30 38.07554 140.29006 36259 ft 369 kts 260°
2026-04-25 16:31 38.06932 140.22538 36245 ft 370 kts 261°
2026-04-25 16:31 38.06356 140.16044 36243 ft 369 kts 261°
2026-04-25 16:32 38.05769 140.09564 36252 ft 370 kts 261°
2026-04-25 16:32 38.05165 140.03060 36243 ft 373 kts 261°
2026-04-25 16:33 38.04555 139.96568 36234 ft 373 kts 261°
2026-04-25 16:33 38.03936 139.90021 36233 ft 373 kts 261°
2026-04-25 16:34 38.03313 139.83490 36236 ft 373 kts 261°
2026-04-25 16:34 38.02692 139.76997 36230 ft 373 kts 261°
2026-04-25 16:35 38.02037 139.70466 36209 ft 372 kts 260°
2026-04-25 16:35 38.01330 139.63957 36215 ft 372 kts 260°
2026-04-25 16:36 38.00619 139.57452 36206 ft 372 kts 260°
2026-04-25 16:36 37.99912 139.50943 36205 ft 372 kts 260°
2026-04-25 16:37 37.99204 139.44423 36197 ft 376 kts 260°
2026-04-25 16:37 37.98512 139.37860 36186 ft 379 kts 260°
2026-04-25 16:38 37.97850 139.31252 36191 ft 377 kts 261°
2026-04-25 16:38 37.97186 139.24666 36182 ft 376 kts 260°
2026-04-25 16:39 37.96512 139.18085 36158 ft 376 kts 260°
2026-04-25 16:39 37.95587 139.11556 36156 ft 375 kts 253°
2026-04-25 16:40 37.93757 139.05400 36150 ft 375 kts 248°
2026-04-25 16:40 37.91685 138.99360 36158 ft 373 kts 247°
2026-04-25 16:41 37.89576 138.93357 36165 ft 373 kts 247°
2026-04-25 16:41 37.86443 138.84392 36170 ft 373 kts 247°
2026-04-25 16:42 37.84351 138.78383 36172 ft 371 kts 247°
2026-04-25 16:42 37.82267 138.72408 36183 ft 371 kts 247°
2026-04-25 16:43 37.80182 138.66443 36179 ft 371 kts 247°
2026-04-25 16:43 37.78094 138.60481 36173 ft 370 kts 247°
2026-04-25 16:44 37.76014 138.54557 36175 ft 372 kts 247°
2026-04-25 16:44 37.73911 138.48578 36176 ft 372 kts 247°
2026-04-25 16:45 37.71803 138.42597 36174 ft 372 kts 247°
2026-04-25 16:45 37.69696 138.36620 36172 ft 372 kts 247°
2026-04-25 16:46 37.67598 138.30688 36176 ft 372 kts 247°
2026-04-25 16:46 37.66184 138.26699 36174 ft 372 kts 247°
2026-04-25 16:47 37.63364 138.18758 36199 ft 372 kts 247°
2026-04-25 16:47 37.61246 138.12804 36174 ft 376 kts 247°
2026-04-25 16:48 37.59093 138.06762 36170 ft 378 kts 246°
2026-04-25 16:48 37.56927 138.00699 36170 ft 379 kts 246°
2026-04-25 16:49 37.54770 137.94672 36170 ft 379 kts 246°
2026-04-25 16:49 37.52595 137.88606 36168 ft 379 kts 246°
2026-04-25 16:50 37.50425 137.82566 36168 ft 377 kts 246°
2026-04-25 16:50 37.48260 137.76552 36169 ft 377 kts 246°
2026-04-25 16:51 37.46091 137.70540 36166 ft 377 kts 246°
2026-04-25 16:51 37.44653 137.66563 36166 ft 377 kts 246°
2026-04-25 16:52 37.41756 137.58560 36166 ft 376 kts 246°
2026-04-25 16:52 37.39581 137.52566 36160 ft 376 kts 246°
2026-04-25 16:53 37.36326 137.43619 36164 ft 376 kts 246°
2026-04-25 16:54 37.34139 137.37623 36162 ft 377 kts 246°
2026-04-25 16:54 37.31950 137.31633 36151 ft 377 kts 246°
2026-04-25 16:55 37.29759 137.25646 36148 ft 377 kts 246°
2026-04-25 16:55 37.27577 137.19699 36142 ft 377 kts 246°
2026-04-25 16:56 37.25379 137.13718 36158 ft 376 kts 246°
2026-04-25 16:56 37.23189 137.07773 36164 ft 375 kts 245°
2026-04-25 16:57 37.21007 137.01857 36162 ft 375 kts 245°
2026-04-25 16:57 37.18813 136.95923 36162 ft 375 kts 245°
2026-04-25 16:58 37.16614 136.89986 36159 ft 374 kts 245°
2026-04-25 16:58 37.14436 136.84118 36158 ft 373 kts 245°
2026-04-25 16:59 37.12242 136.78220 36158 ft 373 kts 245°
2026-04-25 16:59 37.10044 136.72318 36154 ft 373 kts 245°
2026-04-25 17:00 37.07846 136.66425 36150 ft 374 kts 245°
2026-04-25 17:00 37.05657 136.60570 36152 ft 374 kts 245°
2026-04-25 17:01 37.03448 136.54673 36156 ft 374 kts 245°
2026-04-25 17:01 37.01235 136.48777 36150 ft 374 kts 245°
2026-04-25 17:02 36.99021 136.42890 36146 ft 373 kts 245°
2026-04-25 17:02 36.96810 136.37020 36156 ft 373 kts 245°
2026-04-25 17:03 36.94596 136.31153 36150 ft 373 kts 245°
2026-04-25 17:03 36.92395 136.25334 36138 ft 373 kts 245°
2026-04-25 17:04 36.90183 136.19493 36146 ft 371 kts 245°
2026-04-25 17:04 36.87973 136.13672 36145 ft 370 kts 245°
2026-04-25 17:05 36.85764 136.07862 36132 ft 370 kts 245°
2026-04-25 17:05 36.82437 135.99133 36136 ft 370 kts 245°
2026-04-25 17:06 36.80233 135.93362 36145 ft 370 kts 245°
2026-04-25 17:06 36.78011 135.87559 36145 ft 370 kts 245°
2026-04-25 17:07 36.75784 135.81751 36126 ft 371 kts 245°
2026-04-25 17:07 36.73557 135.75954 36144 ft 372 kts 244°
2026-04-25 17:08 36.71324 135.70150 36142 ft 374 kts 244°
2026-04-25 17:08 36.69067 135.64296 36141 ft 374 kts 244°
2026-04-25 17:09 36.66806 135.58442 36137 ft 374 kts 244°
2026-04-25 17:09 36.64542 135.52592 36131 ft 375 kts 244°
2026-04-25 17:10 36.62289 135.46781 36135 ft 375 kts 244°
2026-04-25 17:10 36.60016 135.40931 36138 ft 375 kts 244°
2026-04-25 17:11 36.57752 135.35112 36134 ft 375 kts 244°
2026-04-25 17:11 36.55473 135.29267 36128 ft 375 kts 244°
2026-04-25 17:12 36.53191 135.23424 36137 ft 375 kts 244°
2026-04-25 17:12 36.51291 135.18567 36132 ft 375 kts 244°
2026-04-25 17:13 36.49392 135.13721 36112 ft 375 kts 244°
2026-04-25 17:13 36.46732 135.06944 36129 ft 372 kts 244°
2026-04-25 17:14 36.44460 135.01167 36124 ft 371 kts 244°
2026-04-25 17:14 36.42207 134.95450 36124 ft 371 kts 244°
2026-04-25 17:15 36.39930 134.89681 36120 ft 372 kts 244°
2026-04-25 17:15 36.37646 134.83907 36117 ft 372 kts 244°
2026-04-25 17:16 36.35375 134.78173 36118 ft 372 kts 244°
2026-04-25 17:16 36.33083 134.72398 36116 ft 372 kts 244°
2026-04-25 17:17 36.30792 134.66637 36115 ft 372 kts 244°
2026-04-25 17:17 36.28498 134.60877 36100 ft 373 kts 244°
2026-04-25 17:18 36.26212 134.55147 36114 ft 373 kts 244°
2026-04-25 17:18 36.23808 134.49452 36115 ft 373 kts 240°
2026-04-25 17:19 36.21139 134.43944 36104 ft 372 kts 239°
2026-04-25 17:19 36.18432 134.38489 36105 ft 372 kts 239°
2026-04-25 17:20 36.15730 134.33073 36102 ft 372 kts 239°
2026-04-25 17:20 36.13014 134.27623 36100 ft 371 kts 239°
2026-04-25 17:21 36.10306 134.22192 36102 ft 370 kts 239°
2026-04-25 17:21 36.07599 134.16770 36096 ft 370 kts 239°
2026-04-25 17:22 36.05350 134.12271 36100 ft 370 kts 239°
2026-04-25 17:22 36.02174 134.05927 36097 ft 371 kts 239°
2026-04-25 17:23 35.99464 134.00526 36096 ft 372 kts 239°
2026-04-25 17:23 35.97143 133.94821 36097 ft 372 kts 249°
2026-04-25 17:24 35.96028 133.88566 36093 ft 377 kts 260°
2026-04-25 17:24 35.95730 133.82111 36092 ft 379 kts 263°
2026-04-25 17:25 35.95566 133.75605 36093 ft 379 kts 263°
2026-04-25 17:25 35.95394 133.69066 36090 ft 383 kts 263°
2026-04-25 17:26 35.95194 133.62471 36098 ft 384 kts 263°
2026-04-25 17:26 35.94981 133.55868 36099 ft 384 kts 263°
2026-04-25 17:27 35.94764 133.49278 36096 ft 384 kts 263°
2026-04-25 17:27 35.94581 133.43809 36095 ft 383 kts 263°
2026-04-25 17:28 35.94319 133.36112 36090 ft 387 kts 263°
2026-04-25 17:28 35.94088 133.29470 36087 ft 388 kts 263°
2026-04-25 17:29 35.93857 133.22852 36101 ft 388 kts 263°
2026-04-25 17:29 35.93619 133.16175 36086 ft 391 kts 263°
2026-04-25 17:30 35.93378 133.09466 36077 ft 389 kts 263°
2026-04-25 17:30 35.93137 133.02857 36093 ft 386 kts 262°
2026-04-25 17:31 35.92887 132.96210 36086 ft 389 kts 263°
2026-04-25 17:31 35.92631 132.89503 36083 ft 391 kts 263°
2026-04-25 17:32 35.92373 132.82783 36087 ft 391 kts 263°
2026-04-25 17:32 35.92115 132.76122 36086 ft 391 kts 263°
2026-04-25 17:33 35.91852 132.69443 36082 ft 388 kts 262°
2026-04-25 17:33 35.91587 132.62807 36075 ft 386 kts 262°
2026-04-25 17:34 35.91316 132.56180 36084 ft 389 kts 262°
2026-04-25 17:34 35.91040 132.49531 36080 ft 390 kts 262°
2026-04-25 17:35 35.90761 132.42832 36076 ft 391 kts 262°
2026-04-25 17:35 35.90477 132.36125 36069 ft 392 kts 262°
2026-04-25 17:36 35.90189 132.29399 36075 ft 392 kts 262°
2026-04-25 17:36 35.89900 132.22725 36075 ft 391 kts 262°
2026-04-25 17:37 35.89603 132.15975 36079 ft 393 kts 262°
2026-04-25 17:37 35.89303 132.09265 36074 ft 395 kts 262°
2026-04-25 17:38 35.89099 132.04732 36072 ft 395 kts 262°
2026-04-25 17:38 35.88689 131.95712 36066 ft 395 kts 262°
2026-04-25 17:39 35.88378 131.88951 36071 ft 394 kts 262°
2026-04-25 17:39 35.88062 131.82210 36072 ft 394 kts 262°
2026-04-25 17:40 35.87743 131.75488 36084 ft 395 kts 262°
2026-04-25 17:40 35.87415 131.68681 36071 ft 399 kts 262°
2026-04-25 17:41 35.87083 131.61848 36074 ft 399 kts 262°
2026-04-25 17:41 35.86749 131.55007 36076 ft 398 kts 262°
2026-04-25 17:42 35.86413 131.48232 36066 ft 398 kts 262°
2026-04-25 17:42 35.86070 131.41402 36068 ft 398 kts 262°
2026-04-25 17:43 35.85724 131.34580 36080 ft 398 kts 262°
2026-04-25 17:43 35.85371 131.27735 36060 ft 401 kts 262°
2026-04-25 17:44 35.85016 131.20900 36074 ft 402 kts 262°
2026-04-25 17:44 35.84656 131.14008 36065 ft 401 kts 262°
2026-04-25 17:45 35.84413 131.09416 36071 ft 401 kts 262°
2026-04-25 17:45 35.83922 131.00252 36067 ft 403 kts 262°
2026-04-25 17:46 35.83548 130.93352 36066 ft 403 kts 262°
2026-04-25 17:46 35.83169 130.86440 36067 ft 406 kts 262°
2026-04-25 17:47 35.82784 130.79508 36063 ft 408 kts 262°
2026-04-25 17:47 35.82566 130.72509 36061 ft 409 kts 268°
2026-04-25 17:48 35.83663 130.62050 36060 ft 411 kts 273°
2026-04-25 17:49 35.84558 130.55136 36064 ft 411 kts 273°
2026-04-25 17:49 35.85459 130.48172 36062 ft 411 kts 273°
2026-04-25 17:50 35.86343 130.41185 36063 ft 414 kts 273°
2026-04-25 17:50 35.87225 130.34136 36056 ft 416 kts 273°
2026-04-25 17:51 35.88100 130.27114 36059 ft 416 kts 273°
2026-04-25 17:51 35.88976 130.20047 36059 ft 418 kts 273°
2026-04-25 17:52 35.89852 130.12932 36057 ft 420 kts 273°
2026-04-25 17:52 35.90722 130.05863 36056 ft 417 kts 273°
2026-04-25 17:53 35.91585 129.98803 36059 ft 416 kts 273°
2026-04-25 17:53 35.92445 129.91702 36052 ft 419 kts 273°
2026-04-25 17:54 35.93301 129.84623 36051 ft 419 kts 273°
2026-04-25 17:54 35.94160 129.77494 36058 ft 420 kts 274°
2026-04-25 17:55 35.95019 129.70304 36052 ft 424 kts 274°
2026-04-25 17:55 35.95876 129.63097 36052 ft 424 kts 274°
2026-04-25 17:56 35.96731 129.55885 36062 ft 424 kts 274°
2026-04-25 17:56 35.97993 129.48765 36055 ft 434 kts 284°
2026-04-25 17:57 36.00825 129.42072 36054 ft 445 kts 297°
2026-04-25 17:57 36.04385 129.35751 36056 ft 448 kts 299°
2026-04-25 17:58 36.08029 129.29541 36058 ft 449 kts 300°
2026-04-25 17:58 36.11688 129.23265 36057 ft 450 kts 300°
2026-04-25 17:59 36.14717 129.18018 36058 ft 450 kts 299°
2026-04-25 17:59 36.18345 129.11697 36069 ft 450 kts 300°
2026-04-25 18:00 36.21966 129.05372 36060 ft 450 kts 300°
2026-04-25 18:00 36.25588 128.99037 36063 ft 450 kts 300°
2026-04-25 18:01 36.29187 128.92732 36060 ft 450 kts 300°
2026-04-25 18:01 36.32804 128.86384 36062 ft 450 kts 300°
2026-04-25 18:02 36.36402 128.80073 36061 ft 450 kts 300°
2026-04-25 18:02 36.40007 128.73719 36058 ft 449 kts 300°
2026-04-25 18:03 36.43598 128.67375 36055 ft 448 kts 300°
2026-04-25 18:03 36.47182 128.61033 36055 ft 448 kts 300°
2026-04-25 18:04 36.50764 128.54686 36053 ft 449 kts 300°
2026-04-25 18:04 36.54354 128.48316 36064 ft 449 kts 300°
2026-04-25 18:05 36.57936 128.41945 36057 ft 449 kts 300°
2026-04-25 18:05 36.61489 128.35616 36040 ft 449 kts 300°
2026-04-25 18:06 36.65076 128.29240 36042 ft 449 kts 300°
2026-04-25 18:06 36.68696 128.22893 36041 ft 449 kts 300°
2026-04-25 18:07 36.72316 128.16553 36045 ft 449 kts 301°
2026-04-25 18:07 36.75913 128.10238 36038 ft 450 kts 301°
2026-04-25 18:08 36.79526 128.03860 36035 ft 450 kts 301°
2026-04-25 18:08 36.83144 127.97460 36038 ft 450 kts 301°
2026-04-25 18:09 36.86758 127.91068 36034 ft 450 kts 301°
2026-04-25 18:09 36.90337 127.84706 36035 ft 450 kts 301°
2026-04-25 18:10 36.93937 127.78294 36034 ft 451 kts 301°
2026-04-25 18:10 36.97557 127.71859 36034 ft 450 kts 301°
2026-04-25 18:11 37.01137 127.65477 36032 ft 451 kts 301°
2026-04-25 18:11 37.04749 127.59037 36028 ft 451 kts 301°
2026-04-25 18:12 37.08351 127.52577 36027 ft 454 kts 301°
2026-04-25 18:12 37.12003 127.46008 36031 ft 463 kts 302°
2026-04-25 18:13 37.15720 127.39332 36025 ft 471 kts 302°
2026-04-25 18:13 37.19458 127.32599 36047 ft 470 kts 302°
2026-04-25 18:14 37.25042 127.22511 36059 ft 469 kts 302°
2026-04-25 18:14 37.28747 127.15803 36062 ft 469 kts 302°
2026-04-25 18:15 37.32453 127.09083 36059 ft 469 kts 302°
2026-04-25 18:15 37.36161 127.02347 36053 ft 469 kts 302°
2026-04-25 18:16 37.39520 126.95324 36052 ft 465 kts 292°
2026-04-25 18:16 37.41197 126.87566 36049 ft 462 kts 275°
2026-04-25 18:17 37.41373 126.83517 36049 ft 462 kts 271°
2026-04-25 18:17 37.41396 126.75459 36050 ft 462 kts 269°
2026-04-25 18:18 37.41304 126.67374 36049 ft 463 kts 269°
2026-04-25 18:18 37.41226 126.59298 36049 ft 463 kts 269°
2026-04-25 18:19 37.41168 126.51193 36049 ft 463 kts 269°
2026-04-25 18:19 37.41113 126.43077 36048 ft 464 kts 269°
2026-04-25 18:20 37.41059 126.34976 36046 ft 464 kts 269°
2026-04-25 18:20 37.40998 126.26829 36048 ft 464 kts 269°
2026-04-25 18:21 37.40930 126.18758 36048 ft 464 kts 270°
2026-04-25 18:21 37.40856 126.10614 36035 ft 464 kts 269°
2026-04-25 18:22 37.40776 126.02527 36046 ft 464 kts 269°
2026-04-25 18:22 37.40691 125.94426 36045 ft 464 kts 269°
2026-04-25 18:23 37.40600 125.86284 36045 ft 464 kts 269°
2026-04-25 18:23 37.40503 125.78169 36042 ft 464 kts 269°
2026-04-25 18:24 37.40401 125.70037 36044 ft 464 kts 270°
2026-04-25 18:24 37.40297 125.61970 36042 ft 464 kts 270°
2026-04-25 18:25 37.40185 125.53849 36040 ft 464 kts 269°
2026-04-25 18:25 37.40063 125.45767 36042 ft 463 kts 270°
2026-04-25 18:26 37.39937 125.37630 36041 ft 463 kts 270°
2026-04-25 18:26 37.39807 125.29549 36040 ft 463 kts 269°
2026-04-25 18:27 37.39672 125.21488 36036 ft 463 kts 270°
2026-04-25 18:27 37.39531 125.13435 36034 ft 462 kts 270°
2026-04-25 18:28 37.39389 125.05347 36034 ft 462 kts 270°
2026-04-25 18:28 37.39241 124.97248 36031 ft 462 kts 270°
2026-04-25 18:29 37.39007 124.85165 36032 ft 462 kts 270°
2026-04-25 18:30 37.38676 124.69005 36026 ft 461 kts 270°
2026-04-25 18:30 37.38498 124.60963 36023 ft 461 kts 270°
2026-04-25 18:31 37.38317 124.52931 36023 ft 461 kts 270°
2026-04-25 18:31 37.37835 124.44892 36017 ft 462 kts 261°
2026-04-25 18:32 37.35702 124.37271 36020 ft 468 kts 244°
2026-04-25 18:32 37.32378 124.30225 36018 ft 470 kts 240°
2026-04-25 18:33 37.28839 124.23278 36020 ft 470 kts 240°
2026-04-25 18:33 37.25307 124.16371 36013 ft 470 kts 240°
2026-04-25 18:34 37.21779 124.09473 36019 ft 471 kts 240°
2026-04-25 18:34 37.18131 124.02647 36020 ft 472 kts 239°
2026-04-25 18:35 37.14465 123.95806 36005 ft 471 kts 240°
2026-04-25 18:35 37.10919 123.88932 36015 ft 471 kts 240°
2026-04-25 18:36 37.07367 123.81997 36015 ft 471 kts 240°
2026-04-25 18:36 37.03813 123.75100 36015 ft 471 kts 240°
2026-04-25 18:37 37.00255 123.68233 36011 ft 472 kts 240°
2026-04-25 18:37 36.96664 123.61325 36021 ft 472 kts 240°
2026-04-25 18:38 36.93092 123.54466 36021 ft 472 kts 240°
2026-04-25 18:38 36.89509 123.47600 36012 ft 472 kts 240°
2026-04-25 18:39 36.86376 123.40461 36022 ft 467 kts 252°
2026-04-25 18:39 36.85004 123.32626 36019 ft 459 kts 270°
2026-04-25 18:40 36.85701 123.24799 36016 ft 453 kts 286°
2026-04-25 18:40 36.87435 123.17235 36015 ft 454 kts 288°
2026-04-25 18:41 36.89313 123.09700 36018 ft 452 kts 289°
2026-04-25 18:41 36.91154 123.02225 36021 ft 452 kts 288°
2026-04-25 18:42 36.92371 122.97190 36023 ft 452 kts 288°
2026-04-25 18:42 36.94758 122.87198 36013 ft 451 kts 288°
2026-04-25 18:43 36.96553 122.79647 36004 ft 450 kts 288°
2026-04-25 18:43 36.98324 122.72175 36018 ft 450 kts 288°
2026-04-25 18:44 37.00106 122.64641 36017 ft 450 kts 288°
2026-04-25 18:44 37.01868 122.57168 36005 ft 449 kts 288°
2026-04-25 18:45 37.03634 122.49657 36006 ft 448 kts 288°
2026-04-25 18:45 37.05386 122.42180 36172 ft 449 kts 288°
2026-04-25 18:46 37.06383 122.38520 36362 ft 447 kts 294°
2026-04-25 18:46 37.07752 122.35019 36555 ft 446 kts 301°
2026-04-25 18:46 37.09485 122.31854 36787 ft 443 kts 309°
2026-04-25 18:46 37.11609 122.29030 37019 ft 443 kts 317°
2026-04-25 18:47 37.13923 122.26537 37179 ft 443 kts 317°
2026-04-25 18:47 37.16113 122.23808 37324 ft 443 kts 311°
2026-04-25 18:47 37.18018 122.20764 37500 ft 443 kts 304°
2026-04-25 18:47 37.19078 122.18567 37600 ft 444 kts 298°
2026-04-25 18:48 37.20694 122.13847 37811 ft 445 kts 291°
2026-04-25 18:48 37.21728 122.10176 37972 ft 446 kts 290°
2026-04-25 18:48 37.22375 122.07722 38077 ft 446 kts 289°
2026-04-25 18:48 37.23323 122.04008 38308 ft 444 kts 289°
2026-04-25 18:49 37.24251 122.00313 38538 ft 442 kts 289°
2026-04-25 18:49 37.25168 121.96668 38680 ft 443 kts 289°
2026-04-25 18:49 37.26106 121.92965 38793 ft 443 kts 289°
2026-04-25 18:49 37.27046 121.89274 38909 ft 443 kts 289°
2026-04-25 18:50 37.27991 121.85586 39032 ft 443 kts 289°
2026-04-25 18:50 37.28927 121.81938 39143 ft 443 kts 289°
2026-04-25 18:50 37.29878 121.78230 39280 ft 441 kts 289°
2026-04-25 18:50 37.30808 121.74604 39455 ft 440 kts 289°
2026-04-25 18:51 37.31747 121.70932 39568 ft 439 kts 289°
2026-04-25 18:51 37.32367 121.68507 39653 ft 440 kts 289°
2026-04-25 18:51 37.33620 121.63596 39785 ft 440 kts 289°
2026-04-25 18:51 37.34542 121.59976 39901 ft 440 kts 289°
2026-04-25 18:52 37.36412 121.52619 39977 ft 442 kts 289°
2026-04-25 18:52 37.38260 121.45321 39970 ft 439 kts 289°
2026-04-25 18:53 37.40102 121.38024 39967 ft 437 kts 289°
2026-04-25 18:53 37.41945 121.30708 39981 ft 437 kts 289°
2026-04-25 18:54 37.44687 121.19780 39971 ft 436 kts 289°
2026-04-25 18:55 37.46643 121.12589 39960 ft 434 kts 293°
2026-04-25 18:55 37.48950 121.05582 39958 ft 434 kts 294°
2026-04-25 18:56 37.51291 120.98536 39952 ft 434 kts 294°
2026-04-25 18:56 37.53562 120.91494 39960 ft 434 kts 293°
2026-04-25 18:57 37.55792 120.84454 39961 ft 433 kts 293°
2026-04-25 18:57 37.58013 120.77401 39961 ft 432 kts 293°
2026-04-25 18:58 37.60255 120.70397 39956 ft 432 kts 294°
2026-04-25 18:58 37.63724 120.59906 39951 ft 432 kts 294°
2026-04-25 18:59 37.69048 120.46705 39934 ft 431 kts 301°
2026-04-25 19:00 37.71001 120.42418 39943 ft 431 kts 301°
2026-04-25 19:01 37.75495 120.32590 39938 ft 428 kts 301°
2026-04-25 19:01 37.78451 120.26091 39935 ft 427 kts 301°
2026-04-25 19:02 37.82881 120.16311 39931 ft 427 kts 301°
2026-04-25 19:03 37.86816 120.07596 39931 ft 427 kts 301°
2026-04-25 19:03 37.90237 120.00000 39925 ft 426 kts 301°
2026-04-25 19:04 37.94635 119.90211 39923 ft 426 kts 301°
2026-04-25 19:05 38.00487 119.77139 39932 ft 425 kts 301°
2026-04-25 19:06 38.03394 119.70624 39930 ft 425 kts 301°
2026-04-25 19:06 38.07757 119.60824 39926 ft 425 kts 301°
2026-04-25 19:07 38.11867 119.50857 39912 ft 426 kts 296°
2026-04-25 19:08 38.15317 119.40461 39920 ft 426 kts 295°
2026-04-25 19:09 38.19449 119.27677 39917 ft 426 kts 295°
2026-04-25 19:10 38.23178 119.16141 39895 ft 423 kts 295°
2026-04-25 19:10 38.25407 119.09229 39785 ft 418 kts 295°
2026-04-25 19:10 38.26497 119.05843 39366 ft 415 kts 295°
2026-04-25 19:11 38.27592 119.02434 38932 ft 413 kts 295°
2026-04-25 19:11 38.28665 118.99092 38495 ft 410 kts 295°
2026-04-25 19:11 38.29743 118.95732 37925 ft 408 kts 295°
2026-04-25 19:11 38.30815 118.92388 37384 ft 406 kts 295°
2026-04-25 19:12 38.31873 118.89084 36804 ft 404 kts 295°
2026-04-25 19:12 38.32940 118.85748 36206 ft 404 kts 295°
2026-04-25 19:12 38.33989 118.82465 35606 ft 403 kts 295°
2026-04-25 19:12 38.35050 118.79141 34990 ft 403 kts 295°
2026-04-25 19:13 38.36106 118.75828 34370 ft 402 kts 295°
2026-04-25 19:13 38.37152 118.72542 33736 ft 402 kts 295°
2026-04-25 19:13 38.38209 118.69230 32940 ft 403 kts 295°
2026-04-25 19:13 38.39273 118.65905 32025 ft 407 kts 295°
2026-04-25 19:14 38.40351 118.62536 31066 ft 412 kts 295°
2026-04-25 19:14 38.40705 118.61430 30751 ft 414 kts 295°
2026-04-25 19:14 38.42542 118.55677 29016 ft 424 kts 295°
2026-04-25 19:14 38.43645 118.52210 28013 ft 427 kts 294°
2026-04-25 19:15 38.44766 118.48678 27155 ft 428 kts 294°
2026-04-25 19:15 38.45872 118.45187 26369 ft 427 kts 294°
2026-04-25 19:15 38.46985 118.41668 25641 ft 425 kts 294°
2026-04-25 19:15 38.48094 118.38165 24926 ft 423 kts 293°
2026-04-25 19:16 38.49180 118.34722 24241 ft 421 kts 293°
2026-04-25 19:16 38.50271 118.31250 23561 ft 420 kts 293°
2026-04-25 19:16 38.51363 118.27777 22786 ft 418 kts 293°
2026-04-25 19:16 38.52430 118.24378 22034 ft 416 kts 292°
2026-04-25 19:17 38.53511 118.20934 21311 ft 414 kts 292°
2026-04-25 19:17 38.54577 118.17534 20612 ft 412 kts 292°
2026-04-25 19:17 38.55632 118.14164 19924 ft 410 kts 292°
2026-04-25 19:17 38.56696 118.10762 19276 ft 408 kts 292°
2026-04-25 19:18 38.57736 118.07435 18653 ft 406 kts 292°
2026-04-25 19:18 38.58790 118.04057 18004 ft 404 kts 292°
2026-04-25 19:18 38.59844 118.00756 17544 ft 396 kts 294°
2026-04-25 19:18 38.60947 117.97622 17483 ft 384 kts 295°
2026-04-25 19:19 38.62061 117.94499 17408 ft 385 kts 295°
2026-04-25 19:19 38.63170 117.91373 17354 ft 386 kts 295°
2026-04-25 19:19 38.64259 117.88284 17280 ft 385 kts 295°
2026-04-25 19:19 38.64991 117.86199 17242 ft 385 kts 295°
2026-04-25 19:20 38.66451 117.82026 17156 ft 385 kts 295°
2026-04-25 19:20 38.67550 117.78876 17096 ft 384 kts 295°
2026-04-25 19:20 38.68627 117.75783 17039 ft 384 kts 295°
2026-04-25 19:20 38.69719 117.72643 16964 ft 384 kts 295°
2026-04-25 19:21 38.70805 117.69518 16902 ft 383 kts 295°
2026-04-25 19:21 38.72961 117.63302 16783 ft 383 kts 295°
2026-04-25 19:21 38.74047 117.60165 16717 ft 382 kts 294°
2026-04-25 19:22 38.75112 117.57085 16642 ft 382 kts 295°
2026-04-25 19:22 38.76196 117.53948 16576 ft 382 kts 294°
2026-04-25 19:22 38.78340 117.47732 16455 ft 380 kts 294°
2026-04-25 19:23 38.79398 117.44658 16396 ft 379 kts 294°
2026-04-25 19:23 38.81437 117.38488 16276 ft 365 kts 291°
2026-04-25 19:23 38.82393 117.35516 16235 ft 355 kts 291°
2026-04-25 19:24 38.83370 117.32535 16147 ft 368 kts 291°
2026-04-25 19:24 38.84388 117.29561 16035 ft 354 kts 297°
2026-04-25 19:24 38.87521 117.25120 15831 ft 331 kts 328°
2026-04-25 19:25 38.91526 117.23085 15613 ft 315 kts 339°
2026-04-25 19:25 38.91738 117.22995 15608 ft 313 kts 339°
2026-04-25 19:25 38.93796 117.22122 15588 ft 304 kts 339°
2026-04-25 19:26 38.95782 117.21270 15588 ft 302 kts 339°
2026-04-25 19:26 38.97766 117.20407 15582 ft 303 kts 339°
2026-04-25 19:26 38.99769 117.19530 15581 ft 303 kts 339°
2026-04-25 19:26 39.01767 117.18651 15587 ft 303 kts 339°
2026-04-25 19:27 39.03741 117.17782 15583 ft 303 kts 339°
2026-04-25 19:27 39.04416 117.17487 15563 ft 302 kts 339°
2026-04-25 19:27 39.07741 117.16017 15460 ft 303 kts 339°
2026-04-25 19:27 39.09721 117.15137 15391 ft 302 kts 339°
2026-04-25 19:28 39.11711 117.14254 15218 ft 301 kts 338°
2026-04-25 19:28 39.13687 117.13377 15022 ft 301 kts 338°
2026-04-25 19:28 39.15640 117.12510 14902 ft 299 kts 339°
2026-04-25 19:28 39.17626 117.11627 14788 ft 300 kts 338°
2026-04-25 19:29 39.19593 117.10752 14698 ft 299 kts 338°
2026-04-25 19:29 39.21557 117.09879 14567 ft 298 kts 338°
2026-04-25 19:29 39.23510 117.09010 14466 ft 299 kts 339°
2026-04-25 19:29 39.25458 117.08143 14345 ft 297 kts 338°
2026-04-25 19:30 39.27426 117.07266 14245 ft 298 kts 339°
2026-04-25 19:30 39.29399 117.06387 14148 ft 297 kts 338°
2026-04-25 19:30 39.31340 117.05522 14015 ft 297 kts 338°
2026-04-25 19:30 39.33288 117.04652 13940 ft 298 kts 338°
2026-04-25 19:31 39.35239 117.03783 13805 ft 293 kts 338°
2026-04-25 19:31 39.37163 117.02923 13690 ft 295 kts 338°
2026-04-25 19:31 39.39118 117.02049 13644 ft 295 kts 338°
2026-04-25 19:31 39.41061 117.01179 13439 ft 294 kts 338°
2026-04-25 19:32 39.42980 117.00319 13218 ft 294 kts 338°
2026-04-25 19:32 39.44914 116.99452 12992 ft 292 kts 338°
2026-04-25 19:32 39.46818 116.98598 12822 ft 292 kts 338°
2026-04-25 19:32 39.47466 116.98307 12781 ft 290 kts 338°
2026-04-25 19:33 39.50645 116.96879 12657 ft 292 kts 338°
2026-04-25 19:33 39.52549 116.96024 12544 ft 290 kts 338°
2026-04-25 19:33 39.54441 116.95174 12304 ft 290 kts 339°
2026-04-25 19:33 39.56354 116.94314 12084 ft 288 kts 338°
2026-04-25 19:34 39.58242 116.93466 11886 ft 287 kts 338°
2026-04-25 19:34 39.59494 116.92899 11781 ft 288 kts 338°
2026-04-25 19:34 39.62070 116.91977 11542 ft 288 kts 347°
2026-04-25 19:34 39.64049 116.91625 11365 ft 290 kts 350°
2026-04-25 19:35 39.65384 116.91424 11251 ft 288 kts 350°
2026-04-25 19:35 39.68039 116.91033 11008 ft 288 kts 351°
2026-04-25 19:35 39.69379 116.90835 10898 ft 288 kts 351°
2026-04-25 19:35 39.71995 116.90444 10642 ft 287 kts 351°
2026-04-25 19:36 39.73340 116.90242 10525 ft 287 kts 351°
2026-04-25 19:36 39.75298 116.89947 10348 ft 285 kts 351°
2026-04-25 19:36 39.77262 116.89650 10173 ft 286 kts 351°
2026-04-25 19:36 39.79251 116.89348 10033 ft 284 kts 351°
2026-04-25 19:37 39.81193 116.89054 9827 ft 284 kts 351°
2026-04-25 19:37 39.83176 116.88753 9646 ft 284 kts 351°
2026-04-25 19:37 39.85107 116.88460 9462 ft 282 kts 351°
2026-04-25 19:37 39.87072 116.88151 9339 ft 282 kts 348°
2026-04-25 19:38 39.88943 116.87525 9299 ft 278 kts 340°
2026-04-25 19:38 39.90770 116.86699 9161 ft 277 kts 338°
2026-04-25 19:38 39.92544 116.85843 9061 ft 272 kts 337°
2026-04-25 19:38 39.94326 116.84962 8971 ft 275 kts 337°
2026-04-25 19:39 39.96123 116.84063 8894 ft 272 kts 337°
2026-04-25 19:39 39.97893 116.83173 8774 ft 273 kts 337°
2026-04-25 19:39 39.99656 116.82282 8710 ft 273 kts 337°
2026-04-25 19:39 40.01405 116.81396 8593 ft 271 kts 337°
2026-04-25 19:40 40.03175 116.80499 8511 ft 273 kts 337°
2026-04-25 19:40 40.04937 116.79605 8343 ft 271 kts 337°
2026-04-25 19:40 40.06686 116.78716 8128 ft 270 kts 337°
2026-04-25 19:40 40.08440 116.77824 7909 ft 268 kts 338°
2026-04-25 19:41 40.10172 116.76943 7677 ft 268 kts 338°
2026-04-25 19:41 40.11898 116.76065 7434 ft 266 kts 338°
2026-04-25 19:41 40.13635 116.75180 7220 ft 265 kts 338°
2026-04-25 19:41 40.14773 116.74600 7057 ft 263 kts 338°
2026-04-25 19:42 40.17048 116.73441 6756 ft 263 kts 339°
2026-04-25 19:42 40.18737 116.72579 6523 ft 262 kts 339°
2026-04-25 19:42 40.20443 116.71709 6307 ft 260 kts 339°
2026-04-25 19:42 40.22152 116.71029 6058 ft 259 kts 349°
2026-04-25 19:43 40.23917 116.70683 5823 ft 256 kts 353°
2026-04-25 19:43 40.25692 116.70410 5616 ft 253 kts 353°
2026-04-25 19:43 40.27401 116.70154 5506 ft 244 kts 353°
2026-04-25 19:43 40.29064 116.69902 5384 ft 235 kts 353°
2026-04-25 19:44 40.30660 116.69658 5288 ft 226 kts 353°
2026-04-25 19:44 40.32182 116.69424 5179 ft 219 kts 353°
2026-04-25 19:44 40.33690 116.69191 5057 ft 217 kts 353°
2026-04-25 19:44 40.35142 116.68747 4933 ft 217 kts 337°
2026-04-25 19:45 40.36337 116.67534 4822 ft 221 kts 309°
2026-04-25 19:45 40.36895 116.65650 4694 ft 230 kts 279°
2026-04-25 19:45 40.36826 116.63516 4594 ft 234 kts 268°
2026-04-25 19:45 40.36613 116.61436 4483 ft 230 kts 267°
2026-04-25 19:46 40.36198 116.59401 4235 ft 235 kts 243°
2026-04-25 19:46 40.34974 116.57998 3985 ft 241 kts 204°
2026-04-25 19:46 40.33344 116.57555 3739 ft 242 kts 181°
2026-04-25 19:46 40.31662 116.57728 3478 ft 242 kts 171°
2026-04-25 19:47 40.29986 116.58025 3268 ft 240 kts 172°
2026-04-25 19:47 40.28344 116.58295 3049 ft 238 kts 172°
2026-04-25 19:47 40.26715 116.58545 2831 ft 236 kts 173°
2026-04-25 19:47 40.25071 116.58785 2616 ft 234 kts 173°
2026-04-25 19:48 40.23490 116.59017 2500 ft 227 kts 174°
2026-04-25 19:48 40.21947 116.59248 2415 ft 218 kts 173°
2026-04-25 19:48 40.20481 116.59475 2329 ft 210 kts 173°
2026-04-25 19:48 40.19061 116.59699 2263 ft 197 kts 173°
2026-04-25 19:49 40.17736 116.59910 2013 ft 192 kts 173°
2026-04-25 19:49 40.16860 116.60049 1755 ft 189 kts 174°
2026-04-25 19:49 40.15173 116.60313 1384 ft 174 kts 173°
2026-04-25 19:49 40.14024 116.60511 1122 ft 160 kts 171°
2026-04-25 19:50 40.12007 116.60806 702 ft 137 kts 167°
2026-04-25 19:50 40.11047 116.60949 515 ft 138 kts 168°
2026-04-25 19:50 40.10105 116.61111 355 ft 140 kts 172°
2026-04-25 19:51 40.09140 116.61249 159 ft 137 kts 168°
2026-04-25 19:51 40.08315 116.61384 125 ft 85 kts 172°
2026-04-25 19:51 40.07972 116.61438 125 ft 34 kts 179°
2026-04-25 19:51 40.07766 116.61403 123 ft 25 kts 198°
2026-04-25 19:52 40.07645 116.61341 123 ft 18 kts 202°
2026-04-25 19:52 40.07556 116.61267 124 ft 11 kts 244°
2026-04-25 19:52 40.07547 116.61164 123 ft 12 kts 263°
2026-04-25 19:52 40.07536 116.61052 127 ft 13 kts 263°
2026-04-25 19:53 40.07528 116.60932 127 ft 10 kts 273°
2026-04-25 19:53 40.07560 116.60886 122 ft 6 kts 330°
2026-04-25 19:53 40.07591 116.60845 124 ft 6 kts 297°
2026-04-25 19:53 40.07600 116.60816 123 ft 1 kts 289°
2026-04-25 19:54 40.07606 116.60795 125 ft 3 kts 289°
2026-04-25 19:54 40.07609 116.60783 125 ft 0 kts 289°